Wetterdaten: Donnerstag, 11.02.2016
Datum Zeit Auen-Temp. Temp gefhlt Luftfeuchte Luftdruck Regen Wind Richtung Richtung Sonnenschein Taupunkt Windben
11.02.2016 00:00 0,0 C -1,0 C 57 % 1003,9 hPa 0,0 mm 15,8 km/h (3 Bft) W 270 0 min -7,5 C 25,9 km/h (4 Bft)
11.02.2016 00:05 0,0 C -1,4 C 57 % 1003,9 hPa 0,0 mm 16,4 km/h (3 Bft) SW 225 0 min -7,5 C 20,0 km/h (4 Bft)
11.02.2016 00:10 -0,2 C -1,4 C 57 % 1003,9 hPa 0,0 mm 14,0 km/h (3 Bft) W 270 0 min -7,7 C 18,2 km/h (3 Bft)
11.02.2016 00:15 -0,1 C -1,3 C 56 % 1003,9 hPa 0,0 mm 13,4 km/h (3 Bft) W 270 0 min -7,8 C 38,4 km/h (5 Bft)
11.02.2016 00:20 0,0 C -1,0 C 56 % 1003,9 hPa 0,0 mm 15,5 km/h (3 Bft) NW 315 0 min -7,7 C 20,9 km/h (4 Bft)
11.02.2016 00:25 -0,2 C -1,4 C 56 % 1003,9 hPa 0,0 mm 14,0 km/h (3 Bft) W-SW 247 0 min -7,9 C 17,3 km/h (3 Bft)
11.02.2016 00:30 -0,3 C -1,3 C 56 % 1003,9 hPa 0,0 mm 11,6 km/h (2 Bft) W 270 0 min -8,0 C 21,8 km/h (4 Bft)
11.02.2016 00:35 -0,3 C -1,4 C 56 % 1003,9 hPa 0,0 mm 11,0 km/h (2 Bft) N-NO 22 0 min -8,0 C 11,6 km/h (2 Bft)
11.02.2016 00:40 -0,5 C -1,6 C 56 % 1003,9 hPa 0,0 mm 11,6 km/h (2 Bft) W-SW 247 0 min -8,2 C 28,0 km/h (4 Bft)
11.02.2016 00:45 -0,3 C -1,5 C 56 % 1004,0 hPa 0,0 mm 12,8 km/h (3 Bft) W-SW 247 0 min -8,0 C 22,4 km/h (4 Bft)
11.02.2016 00:50 -0,4 C -1,6 C 56 % 1004,0 hPa 0,0 mm 13,1 km/h (3 Bft) W-SW 247 0 min -8,1 C 13,1 km/h (3 Bft)
11.02.2016 00:55 -0,4 C -1,6 C 57 % 1004,0 hPa 0,0 mm 12,2 km/h (2 Bft) S 180 0 min -7,9 C 7,5 km/h (2 Bft)
11.02.2016 01:00 -0,6 C -1,7 C 57 % 1004,0 hPa 0,0 mm 11,3 km/h (2 Bft) W-SW 247 0 min -8,0 C 10,4 km/h (2 Bft)
11.02.2016 01:05 -0,5 C -1,6 C 57 % 1004,2 hPa 0,0 mm 11,9 km/h (2 Bft) SW 225 0 min -7,9 C 11,3 km/h (2 Bft)
11.02.2016 01:10 -0,8 C -1,8 C 57 % 1004,2 hPa 0,0 mm 11,3 km/h (2 Bft) W-SW 247 0 min -8,2 C 6,9 km/h (2 Bft)
11.02.2016 01:15 -0,6 C -1,6 C 57 % 1004,2 hPa 0,0 mm 9,2 km/h (2 Bft) W 270 0 min -8,0 C 15,8 km/h (3 Bft)
11.02.2016 01:20 -0,5 C -1,6 C 57 % 1004,2 hPa 0,0 mm 11,3 km/h (2 Bft) W 270 0 min -7,9 C 36,1 km/h (5 Bft)
11.02.2016 01:25 -0,1 C -1,1 C 57 % 1004,3 hPa 0,0 mm 14,6 km/h (3 Bft) W 270 0 min -7,6 C 25,3 km/h (4 Bft)
11.02.2016 01:30 0,0 C -1,0 C 56 % 1004,3 hPa 0,0 mm 16,7 km/h (3 Bft) W-SW 247 0 min -7,7 C 25,9 km/h (4 Bft)
11.02.2016 01:35 0,1 C -1,0 C 56 % 1004,3 hPa 0,0 mm 17,9 km/h (3 Bft) W-NW 292 0 min -7,6 C 44,1 km/h (6 Bft)
11.02.2016 01:40 0,0 C -1,1 C 56 % 1004,3 hPa 0,0 mm 19,1 km/h (3 Bft) W 270 0 min -7,7 C 24,7 km/h (4 Bft)
11.02.2016 01:45 -0,2 C -1,2 C 56 % 1004,4 hPa 0,0 mm 14,9 km/h (3 Bft) W-NW 292 0 min -7,9 C 7,7 km/h (2 Bft)
11.02.2016 01:50 -0,2 C -1,5 C 56 % 1004,4 hPa 0,0 mm 14,9 km/h (3 Bft) W 270 0 min -7,9 C 23,5 km/h (4 Bft)
11.02.2016 01:55 -0,4 C -1,3 C 56 % 1004,4 hPa 0,0 mm 14,6 km/h (3 Bft) W-NW 292 0 min -8,1 C 24,1 km/h (4 Bft)
11.02.2016 02:00 -0,4 C -1,6 C 56 % 1004,4 hPa 0,0 mm 13,7 km/h (3 Bft) S-SW 202 0 min -8,1 C 30,4 km/h (5 Bft)
11.02.2016 02:05 -0,3 C -1,3 C 57 % 1004,6 hPa 0,0 mm 14,3 km/h (3 Bft) W 270 0 min -7,8 C 19,4 km/h (3 Bft)
11.02.2016 02:10 -0,3 C -1,6 C 57 % 1004,6 hPa 0,0 mm 14,9 km/h (3 Bft) SW 225 0 min -7,8 C 13,7 km/h (3 Bft)
11.02.2016 02:15 -0,3 C -1,5 C 57 % 1004,6 hPa 0,0 mm 13,7 km/h (3 Bft) W 270 0 min -7,8 C 20,3 km/h (4 Bft)
11.02.2016 02:20 -0,4 C -1,6 C 57 % 1004,6 hPa 0,0 mm 13,4 km/h (3 Bft) SW 225 0 min -7,9 C 31,6 km/h (5 Bft)
11.02.2016 02:25 -0,3 C -1,6 C 57 % 1004,8 hPa 0,0 mm 14,0 km/h (3 Bft) W 270 0 min -7,8 C 35,8 km/h (5 Bft)
11.02.2016 02:30 -0,4 C -1,3 C 57 % 1004,8 hPa 0,0 mm 14,6 km/h (3 Bft) W 270 0 min -7,9 C 9,8 km/h (2 Bft)
11.02.2016 02:35 -0,5 C -1,6 C 58 % 1004,8 hPa 0,0 mm 12,2 km/h (2 Bft) W 270 0 min -7,7 C 12,2 km/h (2 Bft)
11.02.2016 02:40 -0,6 C -1,6 C 58 % 1004,8 hPa 0,0 mm 10,7 km/h (2 Bft) W-SW 247 0 min -7,8 C 25,9 km/h (4 Bft)
11.02.2016 02:45 -0,4 C -1,5 C 58 % 1004,8 hPa 0,0 mm 11,0 km/h (2 Bft) W 270 0 min -7,6 C 11,9 km/h (2 Bft)
11.02.2016 02:50 -0,4 C -1,6 C 58 % 1004,8 hPa 0,0 mm 12,5 km/h (3 Bft) W 270 0 min -7,6 C 18,5 km/h (3 Bft)
11.02.2016 02:55 -0,7 C -1,7 C 58 % 1004,8 hPa 0,0 mm 10,7 km/h (2 Bft) W 270 0 min -7,9 C 5,7 km/h (1 Bft)
11.02.2016 03:00 -0,6 C -1,7 C 58 % 1004,8 hPa 0,0 mm 10,7 km/h (2 Bft) W-SW 247 0 min -7,8 C 15,2 km/h (3 Bft)
11.02.2016 03:05 -0,6 C -1,7 C 59 % 1005,1 hPa 0,0 mm 11,0 km/h (2 Bft) NW 315 0 min -7,6 C 14,6 km/h (3 Bft)
11.02.2016 03:10 -0,6 C -1,8 C 59 % 1005,1 hPa 0,0 mm 11,6 km/h (2 Bft) W 270 0 min -7,6 C 8,9 km/h (2 Bft)
11.02.2016 03:15 -0,6 C -1,9 C 59 % 1005,1 hPa 0,0 mm 13,4 km/h (3 Bft) W-SW 247 0 min -7,6 C 24,1 km/h (4 Bft)
11.02.2016 03:20 -0,6 C -1,6 C 59 % 1005,1 hPa 0,0 mm 14,6 km/h (3 Bft) W-NW 292 0 min -7,6 C 31,3 km/h (5 Bft)
11.02.2016 03:25 -0,6 C -1,9 C 59 % 1005,3 hPa 0,0 mm 14,0 km/h (3 Bft) W-SW 247 0 min -7,6 C 13,1 km/h (3 Bft)
11.02.2016 03:30 -0,7 C -1,9 C 59 % 1005,3 hPa 0,0 mm 13,1 km/h (3 Bft) SW 225 0 min -7,7 C 11,6 km/h (2 Bft)
11.02.2016 03:35 -0,6 C -1,6 C 59 % 1005,3 hPa 0,0 mm 10,4 km/h (2 Bft) W 270 0 min -7,6 C 11,3 km/h (2 Bft)
11.02.2016 03:40 -0,6 C -1,5 C 59 % 1005,3 hPa 0,0 mm 9,8 km/h (2 Bft) W 270 0 min -7,6 C 8,9 km/h (2 Bft)
11.02.2016 03:45 -0,5 C -1,5 C 59 % 1005,5 hPa 0,0 mm 10,7 km/h (2 Bft) W-NW 292 0 min -7,5 C 11,0 km/h (2 Bft)
11.02.2016 03:50 -0,3 C -1,5 C 59 % 1005,5 hPa 0,0 mm 13,4 km/h (3 Bft) W-SW 247 0 min -7,3 C 17,6 km/h (3 Bft)
11.02.2016 03:55 -0,2 C -1,4 C 59 % 1005,5 hPa 0,0 mm 14,0 km/h (3 Bft) NW 315 0 min -7,2 C 19,4 km/h (3 Bft)
11.02.2016 04:00 -0,2 C -1,3 C 59 % 1005,5 hPa 0,0 mm 12,8 km/h (3 Bft) W 270 0 min -7,2 C 12,5 km/h (3 Bft)
11.02.2016 04:05 -0,2 C -1,3 C 59 % 1005,6 hPa 0,0 mm 12,8 km/h (3 Bft) W 270 0 min -7,2 C 17,0 km/h (3 Bft)
11.02.2016 04:10 -0,1 C -1,1 C 59 % 1005,6 hPa 0,0 mm 11,9 km/h (2 Bft) W-SW 247 0 min -7,1 C 20,9 km/h (4 Bft)
11.02.2016 04:15 -0,2 C -1,2 C 59 % 1005,6 hPa 0,0 mm 12,2 km/h (2 Bft) W-SW 247 0 min -7,2 C 17,9 km/h (3 Bft)
11.02.2016 04:20 -0,2 C -1,3 C 59 % 1005,6 hPa 0,0 mm 12,5 km/h (3 Bft) W 270 0 min -7,2 C 20,0 km/h (4 Bft)
11.02.2016 04:25 -0,1 C -1,0 C 59 % 1005,6 hPa 0,0 mm 14,6 km/h (3 Bft) W 270 0 min -7,1 C 17,3 km/h (3 Bft)
11.02.2016 04:30 -0,1 C -1,2 C 58 % 1005,6 hPa 0,0 mm 13,7 km/h (3 Bft) W-SW 247 0 min -7,3 C 18,2 km/h (3 Bft)
11.02.2016 04:35 0,0 C -1,2 C 58 % 1005,6 hPa 0,0 mm 14,3 km/h (3 Bft) W 270 0 min -7,3 C 13,1 km/h (3 Bft)
11.02.2016 04:40 0,0 C -1,1 C 58 % 1005,6 hPa 0,0 mm 13,7 km/h (3 Bft) W-NW 292 0 min -7,3 C 11,6 km/h (2 Bft)
11.02.2016 04:45 0,0 C -0,8 C 58 % 1005,7 hPa 0,0 mm 16,1 km/h (3 Bft) W 270 0 min -7,3 C 22,7 km/h (4 Bft)
11.02.2016 04:50 0,1 C -0,8 C 58 % 1005,7 hPa 0,0 mm 18,2 km/h (3 Bft) W 270 0 min -7,2 C 16,1 km/h (3 Bft)
11.02.2016 04:55 0,1 C -0,8 C 57 % 1005,7 hPa 0,0 mm 17,0 km/h (3 Bft) W-SW 247 0 min -7,4 C 14,0 km/h (3 Bft)
11.02.2016 05:00 0,2 C -1,1 C 57 % 1005,7 hPa 0,0 mm 17,0 km/h (3 Bft) W 270 0 min -7,3 C 11,0 km/h (2 Bft)
11.02.2016 05:05 0,0 C -0,9 C 57 % 1005,9 hPa 0,0 mm 17,6 km/h (3 Bft) SO 135 0 min -7,5 C 35,8 km/h (5 Bft)
11.02.2016 05:07 0,2 C -0,7 C 57 % 1005,9 hPa 0,0 mm 15,8 km/h (3 Bft) W-SW 247 0 min -7,3 C 20,9 km/h (4 Bft)
11.02.2016 05:10 0,2 C -1,0 C 57 % 1005,9 hPa 0,0 mm 15,8 km/h (3 Bft) W-SW 247 0 min -7,3 C 20,9 km/h (4 Bft)
11.02.2016 05:15 0,2 C -1,0 C 56 % 1005,9 hPa 0,0 mm 16,1 km/h (3 Bft) SW 225 0 min -7,5 C 19,4 km/h (3 Bft)
11.02.2016 05:20 0,2 C -0,7 C 56 % 1005,9 hPa 0,0 mm 15,5 km/h (3 Bft) W 270 0 min -7,5 C 8,3 km/h (2 Bft)
11.02.2016 05:25 0,1 C -1,1 C 56 % 1006,1 hPa 0,0 mm 15,5 km/h (3 Bft) W 270 0 min -7,6 C 18,5 km/h (3 Bft)
11.02.2016 05:30 0,2 C -0,7 C 56 % 1006,1 hPa 0,0 mm 17,0 km/h (3 Bft) SW 225 0 min -7,5 C 23,2 km/h (4 Bft)
11.02.2016 05:35 0,2 C -0,7 C 56 % 1006,1 hPa 0,0 mm 16,4 km/h (3 Bft) W 270 0 min -7,5 C 21,8 km/h (4 Bft)
11.02.2016 05:40 0,1 C -0,9 C 57 % 1006,1 hPa 0,0 mm 13,1 km/h (3 Bft) W-SW 247 0 min -7,4 C 8,9 km/h (2 Bft)
11.02.2016 05:45 0,0 C -0,8 C 57 % 1006,1 hPa 0,0 mm 10,7 km/h (2 Bft) W-SW 247 0 min -7,5 C 15,2 km/h (3 Bft)
11.02.2016 05:50 0,0 C -0,8 C 57 % 1006,1 hPa 0,0 mm 9,8 km/h (2 Bft) N 360 0 min -7,5 C 17,3 km/h (3 Bft)
11.02.2016 05:55 0,0 C -0,8 C 57 % 1006,1 hPa 0,0 mm 9,8 km/h (2 Bft) NW 315 0 min -7,5 C 8,3 km/h (2 Bft)
11.02.2016 06:00 -0,1 C -0,8 C 57 % 1006,1 hPa 0,0 mm 8,9 km/h (2 Bft) W 270 0 min -7,6 C 7,7 km/h (2 Bft)
11.02.2016 06:05 0,0 C -0,8 C 57 % 1006,1 hPa 0,0 mm 8,9 km/h (2 Bft) W 270 0 min -7,5 C 6,9 km/h (2 Bft)
11.02.2016 06:10 0,0 C -0,9 C 57 % 1006,1 hPa 0,0 mm 10,4 km/h (2 Bft) W 270 0 min -7,5 C 8,0 km/h (2 Bft)
11.02.2016 06:15 -0,1 C -0,9 C 57 % 1006,1 hPa 0,0 mm 9,5 km/h (2 Bft) W-SW 247 0 min -7,6 C 17,0 km/h (3 Bft)
11.02.2016 06:20 -0,1 C -0,9 C 57 % 1006,1 hPa 0,0 mm 9,2 km/h (2 Bft) W-SW 247 0 min -7,6 C 19,4 km/h (3 Bft)
11.02.2016 06:25 0,0 C -0,9 C 57 % 1006,3 hPa 0,0 mm 9,8 km/h (2 Bft) W-SW 247 0 min -7,5 C 12,5 km/h (3 Bft)
11.02.2016 06:30 -0,1 C -0,9 C 57 % 1006,3 hPa 0,0 mm 9,2 km/h (2 Bft) W-SW 247 0 min -7,6 C 7,7 km/h (2 Bft)
11.02.2016 06:35 -0,2 C -0,9 C 57 % 1006,3 hPa 0,0 mm 9,2 km/h (2 Bft) W-SW 247 0 min -7,7 C 9,2 km/h (2 Bft)
11.02.2016 06:40 -0,2 C -1,0 C 57 % 1006,3 hPa 0,0 mm 9,2 km/h (2 Bft) W-SW 247 0 min -7,7 C 15,5 km/h (3 Bft)
11.02.2016 06:45 -0,3 C -1,1 C 57 % 1006,2 hPa 0,0 mm 9,2 km/h (2 Bft) SW 225 0 min -7,8 C 20,9 km/h (4 Bft)
11.02.2016 06:50 -0,3 C -1,1 C 57 % 1006,2 hPa 0,0 mm 8,9 km/h (2 Bft) SW 225 0 min -7,8 C 5,7 km/h (1 Bft)
11.02.2016 06:55 -0,2 C -1,1 C 58 % 1006,2 hPa 0,0 mm 9,8 km/h (2 Bft) N-NW 337 0 min -7,4 C 15,5 km/h (3 Bft)
11.02.2016 07:00 -0,3 C -1,1 C 58 % 1006,2 hPa 0,0 mm 9,2 km/h (2 Bft) W-SW 247 0 min -7,5 C 8,0 km/h (2 Bft)
11.02.2016 07:05 -0,2 C -1,0 C 58 % 1006,5 hPa 0,0 mm 9,2 km/h (2 Bft) W-SW 247 0 min -7,4 C 14,3 km/h (3 Bft)
11.02.2016 07:10 -0,1 C -1,0 C 58 % 1006,5 hPa 0,0 mm 9,5 km/h (2 Bft) NW 315 0 min -7,3 C 8,3 km/h (2 Bft)
11.02.2016 07:15 -0,1 C -0,9 C 58 % 1006,5 hPa 0,0 mm 8,9 km/h (2 Bft) NW 315 0 min -7,3 C 3,0 km/h (1 Bft)
11.02.2016 07:20 -0,2 C -0,7 C 58 % 1006,5 hPa 0,0 mm 7,2 km/h (2 Bft) W 270 0 min -7,4 C 8,9 km/h (2 Bft)
11.02.2016 07:25 -0,2 C -0,6 C 58 % 1006,6 hPa 0,0 mm 5,7 km/h (1 Bft) W-NW 292 0 min -7,4 C 4,2 km/h (1 Bft)
11.02.2016 07:30 -0,3 C -0,8 C 58 % 1006,6 hPa 0,0 mm 6,6 km/h (2 Bft) W-NW 292 0 min -7,5 C 10,7 km/h (2 Bft)
11.02.2016 07:35 -0,2 C -0,8 C 58 % 1006,6 hPa 0,0 mm 6,9 km/h (2 Bft) W-SW 247 0 min -7,4 C 9,2 km/h (2 Bft)
11.02.2016 07:40 -0,2 C -0,8 C 58 % 1006,6 hPa 0,0 mm 6,9 km/h (2 Bft) W-SW 247 0 min -7,4 C 5,4 km/h (1 Bft)
11.02.2016 07:45 -0,2 C -0,6 C 58 % 1006,6 hPa 0,0 mm 5,7 km/h (1 Bft) W-SW 247 0 min -7,4 C 9,2 km/h (2 Bft)
11.02.2016 07:50 -0,2 C -0,5 C 58 % 1006,6 hPa 0,0 mm 5,1 km/h (1 Bft) W-SW 247 0 min -7,4 C 3,9 km/h (1 Bft)
11.02.2016 07:55 -0,2 C -0,7 C 58 % 1006,6 hPa 0,0 mm 6,3 km/h (2 Bft) N-NO 22 0 min -7,4 C 6,9 km/h (2 Bft)
11.02.2016 08:00 -0,2 C -0,7 C 58 % 1006,6 hPa 0,0 mm 6,6 km/h (2 Bft) W-SW 247 0 min -7,4 C 10,7 km/h (2 Bft)
11.02.2016 08:05 -0,2 C -0,8 C 58 % 1006,8 hPa 0,0 mm 7,5 km/h (2 Bft) W-SW 247 0 min -7,4 C 7,2 km/h (2 Bft)
11.02.2016 08:10 -0,1 C -0,7 C 58 % 1006,8 hPa 0,0 mm 7,7 km/h (2 Bft) SW 225 0 min -7,3 C 13,4 km/h (3 Bft)
11.02.2016 08:15 -0,1 C -0,7 C 58 % 1006,8 hPa 0,0 mm 7,5 km/h (2 Bft) W-SW 247 0 min -7,3 C 9,2 km/h (2 Bft)
11.02.2016 08:20 -0,1 C -0,7 C 58 % 1006,8 hPa 0,0 mm 7,7 km/h (2 Bft) SW 225 0 min -7,3 C 8,3 km/h (2 Bft)
11.02.2016 08:25 0,0 C -0,6 C 58 % 1006,9 hPa 0,0 mm 8,0 km/h (2 Bft) W 270 0 min -7,3 C 7,2 km/h (2 Bft)
11.02.2016 08:30 0,0 C -0,6 C 58 % 1006,9 hPa 0,0 mm 7,7 km/h (2 Bft) SW 225 0 min -7,3 C 11,6 km/h (2 Bft)
11.02.2016 08:35 0,0 C -0,4 C 58 % 1006,9 hPa 0,0 mm 7,5 km/h (2 Bft) W-SW 247 0 min -7,3 C 10,7 km/h (2 Bft)
11.02.2016 08:40 0,1 C -0,3 C 58 % 1006,9 hPa 0,0 mm 7,7 km/h (2 Bft) SW 225 0 min -7,2 C 9,5 km/h (2 Bft)
11.02.2016 08:45 0,1 C -0,2 C 58 % 1006,9 hPa 0,0 mm 8,3 km/h (2 Bft) W-SW 247 0 min -7,2 C 9,2 km/h (2 Bft)
11.02.2016 08:50 0,2 C 0,0 C 58 % 1006,9 hPa 0,0 mm 8,3 km/h (2 Bft) W-NW 292 0 min -7,1 C 10,4 km/h (2 Bft)
11.02.2016 08:55 0,4 C 0,1 C 58 % 1006,9 hPa 0,0 mm 8,3 km/h (2 Bft) SW 225 0 min -6,9 C 20,3 km/h (4 Bft)
11.02.2016 09:00 0,5 C 0,3 C 57 % 1006,9 hPa 0,0 mm 8,0 km/h (2 Bft) SW 225 0 min -7,0 C 9,8 km/h (2 Bft)
11.02.2016 09:05 0,5 C 0,4 C 57 % 1006,9 hPa 0,0 mm 7,5 km/h (2 Bft) SW 225 0 min -7,0 C 13,1 km/h (3 Bft)
11.02.2016 09:10 0,6 C 0,5 C 57 % 1006,9 hPa 0,0 mm 7,5 km/h (2 Bft) W-SW 247 0 min -6,9 C 10,4 km/h (2 Bft)
11.02.2016 09:15 0,7 C 0,7 C 56 % 1006,9 hPa 0,0 mm 8,3 km/h (2 Bft) W-SW 247 0 min -7,1 C 5,4 km/h (1 Bft)
11.02.2016 09:20 0,7 C 0,9 C 56 % 1006,9 hPa 0,0 mm 7,5 km/h (2 Bft) W 270 0 min -7,1 C 11,0 km/h (2 Bft)
11.02.2016 09:25 0,8 C 0,8 C 56 % 1007,1 hPa 0,0 mm 9,2 km/h (2 Bft) W-SW 247 0 min -7,0 C 20,3 km/h (4 Bft)
11.02.2016 09:30 0,9 C 0,7 C 55 % 1007,1 hPa 0,0 mm 11,0 km/h (2 Bft) W-NW 292 0 min -7,1 C 6,6 km/h (2 Bft)
11.02.2016 09:35 1,0 C 0,9 C 55 % 1007,1 hPa 0,0 mm 11,0 km/h (2 Bft) W-SW 247 0 min -7,0 C 17,9 km/h (3 Bft)
11.02.2016 09:40 1,1 C 1,1 C 55 % 1007,1 hPa 0,0 mm 10,4 km/h (2 Bft) W-SW 247 0 min -6,9 C 13,4 km/h (3 Bft)
11.02.2016 09:45 1,1 C 1,2 C 54 % 1007,3 hPa 0,0 mm 11,3 km/h (2 Bft) W 270 0 min -7,1 C 13,1 km/h (3 Bft)
11.02.2016 09:50 1,2 C 1,2 C 54 % 1007,3 hPa 0,0 mm 11,0 km/h (2 Bft) O-NO 67 0 min -7,1 C 7,5 km/h (2 Bft)
11.02.2016 09:55 1,1 C 0,9 C 54 % 1007,3 hPa 0,0 mm 10,7 km/h (2 Bft) W 270 0 min -7,1 C 8,3 km/h (2 Bft)
11.02.2016 10:00 1,1 C 0,9 C 54 % 1007,3 hPa 0,0 mm 8,6 km/h (2 Bft) W 270 0 min -7,1 C 11,0 km/h (2 Bft)
11.02.2016 10:05 1,1 C 0,8 C 53 % 1007,6 hPa 0,0 mm 9,5 km/h (2 Bft) W 270 0 min -7,4 C 15,5 km/h (3 Bft)
11.02.2016 10:10 1,2 C 0,6 C 53 % 1007,6 hPa 0,0 mm 12,2 km/h (2 Bft) W-SW 247 0 min -7,3 C 19,7 km/h (3 Bft)
11.02.2016 10:15 1,2 C 0,8 C 51 % 1007,6 hPa 0,0 mm 14,6 km/h (3 Bft) W-NW 292 0 min -7,8 C 20,6 km/h (4 Bft)
11.02.2016 10:20 1,3 C 0,5 C 51 % 1007,6 hPa 0,0 mm 13,4 km/h (3 Bft) W-SW 247 0 min -7,7 C 11,6 km/h (2 Bft)
11.02.2016 10:25 1,4 C 1,0 C 51 % 1007,7 hPa 0,0 mm 14,6 km/h (3 Bft) W-SW 247 0 min -7,6 C 17,3 km/h (3 Bft)
11.02.2016 10:30 1,3 C 1,1 C 51 % 1007,7 hPa 0,0 mm 13,7 km/h (3 Bft) W-SW 247 0 min -7,7 C 19,1 km/h (3 Bft)
11.02.2016 10:35 1,3 C 1,4 C 51 % 1007,7 hPa 0,0 mm 12,8 km/h (3 Bft) W-SW 247 0 min -7,7 C 12,2 km/h (2 Bft)
11.02.2016 10:40 1,4 C 2,1 C 50 % 1007,7 hPa 0,0 mm 15,2 km/h (3 Bft) W-NW 292 0 min -7,9 C 16,7 km/h (3 Bft)
11.02.2016 10:45 1,4 C 1,9 C 50 % 1007,8 hPa 0,0 mm 15,8 km/h (3 Bft) W 270 0 min -7,9 C 20,3 km/h (4 Bft)
11.02.2016 10:50 1,5 C 1,5 C 50 % 1007,8 hPa 0,0 mm 15,5 km/h (3 Bft) W 270 0 min -7,8 C 14,3 km/h (3 Bft)
11.02.2016 10:55 1,5 C 1,3 C 49 % 1007,8 hPa 0,0 mm 14,6 km/h (3 Bft) W-SW 247 0 min -8,0 C 12,8 km/h (3 Bft)
11.02.2016 11:00 1,5 C 1,1 C 49 % 1007,8 hPa 0,0 mm 12,8 km/h (3 Bft) SW 225 0 min -8,0 C 15,8 km/h (3 Bft)
11.02.2016 11:05 1,7 C 2,1 C 50 % 1007,9 hPa 0,0 mm 11,9 km/h (2 Bft) W-NW 292 0 min -7,6 C 15,8 km/h (3 Bft)
11.02.2016 11:07 2,0 C 3,0 C 49 % 1007,9 hPa 0,0 mm 12,5 km/h (3 Bft) W-SW 247 2 min -7,6 C 14,3 km/h (3 Bft)
11.02.2016 11:10 2,0 C 3,0 C 49 % 1007,9 hPa 0,0 mm 12,5 km/h (3 Bft) W-SW 247 3 min -7,6 C 14,3 km/h (3 Bft)
11.02.2016 11:15 2,0 C 4,6 C 49 % 1007,9 hPa 0,0 mm 13,4 km/h (3 Bft) W-SW 247 5 min -7,6 C 20,9 km/h (4 Bft)
11.02.2016 11:20 1,8 C 5,4 C 49 % 1007,9 hPa 0,0 mm 12,5 km/h (3 Bft) S 180 5 min -7,8 C 17,3 km/h (3 Bft)
11.02.2016 11:25 1,8 C 5,8 C 49 % 1008,3 hPa 0,0 mm 14,3 km/h (3 Bft) W 270 5 min -7,8 C 19,1 km/h (3 Bft)
11.02.2016 11:30 1,7 C 5,9 C 49 % 1008,3 hPa 0,0 mm 14,3 km/h (3 Bft) S 180 5 min -7,8 C 10,1 km/h (2 Bft)
11.02.2016 11:35 1,8 C 6,7 C 49 % 1008,3 hPa 0,0 mm 11,0 km/h (2 Bft) NW 315 5 min -7,8 C 20,9 km/h (4 Bft)
11.02.2016 11:40 1,9 C 5,9 C 49 % 1008,3 hPa 0,0 mm 13,7 km/h (3 Bft) W-NW 292 5 min -7,7 C 23,2 km/h (4 Bft)
11.02.2016 11:45 1,9 C 6,3 C 49 % 1008,6 hPa 0,0 mm 14,9 km/h (3 Bft) W 270 5 min -7,7 C 9,8 km/h (2 Bft)
11.02.2016 11:50 1,9 C 6,3 C 49 % 1008,6 hPa 0,0 mm 12,5 km/h (3 Bft) NW 315 5 min -7,7 C 7,7 km/h (2 Bft)
11.02.2016 11:55 1,9 C 6,2 C 49 % 1008,6 hPa 0,0 mm 12,5 km/h (3 Bft) W-SW 247 5 min -7,7 C 9,2 km/h (2 Bft)
11.02.2016 12:00 1,9 C 6,6 C 49 % 1008,6 hPa 0,0 mm 11,6 km/h (2 Bft) W 270 5 min -7,7 C 14,6 km/h (3 Bft)
11.02.2016 12:05 1,9 C 6,1 C 49 % 1008,7 hPa 0,0 mm 11,3 km/h (2 Bft) NW 315 5 min -7,7 C 10,1 km/h (2 Bft)
11.02.2016 12:10 1,9 C 5,2 C 49 % 1008,7 hPa 0,0 mm 12,2 km/h (2 Bft) W-NW 292 5 min -7,7 C 13,7 km/h (3 Bft)
11.02.2016 12:15 2,0 C 4,8 C 48 % 1008,7 hPa 0,0 mm 9,5 km/h (2 Bft) SW 225 5 min -7,8 C 4,8 km/h (1 Bft)
11.02.2016 12:20 2,0 C 4,6 C 48 % 1008,7 hPa 0,0 mm 8,9 km/h (2 Bft) O-SO 112 5 min -7,8 C 24,7 km/h (4 Bft)
11.02.2016 12:25 2,0 C 4,1 C 48 % 1008,7 hPa 0,0 mm 9,2 km/h (2 Bft) W-SW 247 5 min -7,8 C 10,7 km/h (2 Bft)
11.02.2016 12:30 2,2 C 3,9 C 49 % 1008,7 hPa 0,0 mm 10,1 km/h (2 Bft) SW 225 5 min -7,4 C 9,5 km/h (2 Bft)
11.02.2016 12:35 2,1 C 4,6 C 49 % 1008,7 hPa 0,0 mm 8,9 km/h (2 Bft) W-NW 292 5 min -7,5 C 11,9 km/h (2 Bft)
11.02.2016 12:40 1,9 C 5,9 C 48 % 1008,7 hPa 0,0 mm 6,6 km/h (2 Bft) W-SW 247 5 min -7,9 C 5,7 km/h (1 Bft)
11.02.2016 12:45 2,0 C 6,7 C 49 % 1008,2 hPa 0,0 mm 7,2 km/h (2 Bft) W-NW 292 5 min -7,6 C 15,5 km/h (3 Bft)
11.02.2016 12:50 2,3 C 6,7 C 49 % 1008,2 hPa 0,0 mm 9,2 km/h (2 Bft) W 270 5 min -7,3 C 20,3 km/h (4 Bft)
11.02.2016 12:55 2,4 C 6,8 C 49 % 1008,2 hPa 0,0 mm 10,7 km/h (2 Bft) W 270 5 min -7,2 C 14,9 km/h (3 Bft)
11.02.2016 13:00 2,5 C 6,7 C 49 % 1008,2 hPa 0,0 mm 12,2 km/h (2 Bft) NW 315 5 min -7,1 C 17,0 km/h (3 Bft)
11.02.2016 13:05 2,6 C 6,8 C 49 % 1007,8 hPa 0,0 mm 12,8 km/h (3 Bft) W-SW 247 5 min -7,0 C 14,6 km/h (3 Bft)
11.02.2016 13:10 2,4 C 7,2 C 48 % 1007,8 hPa 0,0 mm 11,3 km/h (2 Bft) NW 315 5 min -7,5 C 12,2 km/h (2 Bft)
11.02.2016 13:15 2,7 C 7,7 C 48 % 1007,8 hPa 0,0 mm 10,7 km/h (2 Bft) N-NW 337 5 min -7,2 C 11,9 km/h (2 Bft)
11.02.2016 13:20 2,7 C 7,7 C 48 % 1007,8 hPa 0,0 mm 11,0 km/h (2 Bft) W 270 5 min -7,2 C 10,1 km/h (2 Bft)
11.02.2016 13:25 2,6 C 7,6 C 48 % 1007,6 hPa 0,0 mm 11,0 km/h (2 Bft) W 270 5 min -7,3 C 8,6 km/h (2 Bft)
11.02.2016 13:30 2,9 C 7,3 C 48 % 1007,6 hPa 0,0 mm 11,9 km/h (2 Bft) W-NW 292 5 min -7,0 C 12,8 km/h (3 Bft)
11.02.2016 13:35 2,7 C 8,1 C 48 % 1007,6 hPa 0,0 mm 10,4 km/h (2 Bft) NW 315 5 min -7,2 C 18,2 km/h (3 Bft)
11.02.2016 13:40 2,9 C 8,3 C 47 % 1007,6 hPa 0,0 mm 9,8 km/h (2 Bft) N-NO 22 5 min -7,3 C 11,9 km/h (2 Bft)
11.02.2016 13:45 3,1 C 8,0 C 47 % 1007,5 hPa 0,0 mm 11,0 km/h (2 Bft) NW 315 5 min -7,1 C 21,2 km/h (4 Bft)
11.02.2016 13:47 4,1 C 8,1 C 47 % 1007,5 hPa 0,0 mm 10,4 km/h (2 Bft) NW 315 2 min -6,2 C 8,6 km/h (2 Bft)
11.02.2016 13:49 4,1 C 8,1 C 47 % 1007,5 hPa 0,0 mm 10,4 km/h (2 Bft) NW 315 2 min -6,2 C 8,6 km/h (2 Bft)
11.02.2016 13:50 4,1 C 8,1 C 47 % 1007,5 hPa 0,0 mm 10,4 km/h (2 Bft) NW 315 1 min -6,2 C 8,6 km/h (2 Bft)
11.02.2016 13:55 4,8 C 8,7 C 46 % 1007,5 hPa 0,0 mm 9,5 km/h (2 Bft) W 270 5 min -5,8 C 14,6 km/h (3 Bft)
11.02.2016 14:00 4,9 C 8,5 C 46 % 1007,5 hPa 0,0 mm 9,8 km/h (2 Bft) W-NW 292 5 min -5,7 C 13,1 km/h (3 Bft)
11.02.2016 14:01 5,0 C 8,1 C 46 % 1007,5 hPa 0,0 mm 11,0 km/h (2 Bft) N-NW 337 1 min -5,6 C 12,2 km/h (2 Bft)
11.02.2016 14:03 5,0 C 8,2 C 46 % 1007,1 hPa 0,0 mm 11,0 km/h (2 Bft) NW 315 2 min -5,6 C 13,4 km/h (3 Bft)
11.02.2016 14:04 5,0 C 8,2 C 46 % 1007,1 hPa 0,0 mm 11,0 km/h (2 Bft) NW 315 1 min -5,6 C 13,4 km/h (3 Bft)
11.02.2016 14:05 5,2 C 8,2 C 46 % 1007,1 hPa 0,0 mm 11,0 km/h (2 Bft) W-NW 292 1 min -5,5 C 15,2 km/h (3 Bft)
11.02.2016 14:06 5,2 C 8,2 C 46 % 1007,1 hPa 0,0 mm 11,0 km/h (2 Bft) W-NW 292 1 min -5,5 C 15,2 km/h (3 Bft)
11.02.2016 14:07 5,1 C 8,1 C 45 % 1007,1 hPa 0,0 mm 10,7 km/h (2 Bft) W-NW 292 1 min -5,8 C 17,3 km/h (3 Bft)
11.02.2016 14:08 5,1 C 8,1 C 45 % 1007,1 hPa 0,0 mm 10,7 km/h (2 Bft) W-NW 292 1 min -5,8 C 17,3 km/h (3 Bft)
11.02.2016 14:09 5,1 C 8,0 C 45 % 1007,1 hPa 0,0 mm 11,0 km/h (2 Bft) NW 315 1 min -5,8 C 10,4 km/h (2 Bft)
11.02.2016 14:10 5,1 C 8,0 C 45 % 1007,1 hPa 0,0 mm 11,0 km/h (2 Bft) NW 315 1 min -5,8 C 10,4 km/h (2 Bft)
11.02.2016 14:11 5,1 C 7,8 C 45 % 1007,1 hPa 0,0 mm 11,3 km/h (2 Bft) SW 225 1 min -5,8 C 7,2 km/h (2 Bft)
11.02.2016 14:12 5,1 C 7,8 C 45 % 1007,1 hPa 0,0 mm 11,3 km/h (2 Bft) SW 225 1 min -5,8 C 7,2 km/h (2 Bft)
11.02.2016 14:14 5,0 C 8,0 C 45 % 1007,1 hPa 0,0 mm 11,0 km/h (2 Bft) W-NW 292 2 min -5,9 C 8,9 km/h (2 Bft)
11.02.2016 14:16 5,0 C 8,3 C 45 % 1007,1 hPa 0,0 mm 9,8 km/h (2 Bft) W-NW 292 2 min -5,9 C 8,6 km/h (2 Bft)
11.02.2016 14:18 5,1 C 8,3 C 45 % 1007,1 hPa 0,0 mm 10,1 km/h (2 Bft) NW 315 2 min -5,8 C 14,6 km/h (3 Bft)
11.02.2016 14:20 5,2 C 8,3 C 45 % 1007,1 hPa 0,0 mm 10,4 km/h (2 Bft) NW 315 2 min -5,7 C 14,3 km/h (3 Bft)
11.02.2016 14:22 5,1 C 8,3 C 44 % 1007,1 hPa 0,0 mm 9,8 km/h (2 Bft) W 270 2 min -6,1 C 12,8 km/h (3 Bft)
11.02.2016 14:23 5,1 C 8,2 C 44 % 1007,0 hPa 0,0 mm 10,4 km/h (2 Bft) W 270 1 min -6,1 C 11,3 km/h (2 Bft)
11.02.2016 14:24 5,1 C 8,2 C 44 % 1007,0 hPa 0,0 mm 10,4 km/h (2 Bft) W 270 1 min -6,1 C 11,3 km/h (2 Bft)
11.02.2016 14:25 5,1 C 8,2 C 45 % 1007,0 hPa 0,0 mm 10,4 km/h (2 Bft) N-NW 337 1 min -5,8 C 8,3 km/h (2 Bft)
11.02.2016 14:26 5,1 C 8,2 C 45 % 1007,0 hPa 0,0 mm 10,4 km/h (2 Bft) N-NW 337 1 min -5,8 C 8,3 km/h (2 Bft)
11.02.2016 14:27 5,2 C 8,3 C 45 % 1007,0 hPa 0,0 mm 10,4 km/h (2 Bft) W-NW 292 1 min -5,7 C 10,1 km/h (2 Bft)
11.02.2016 14:28 5,2 C 8,3 C 45 % 1007,0 hPa 0,0 mm 10,4 km/h (2 Bft) W-NW 292 1 min -5,7 C 10,1 km/h (2 Bft)
11.02.2016 14:29 5,4 C 8,4 C 45 % 1007,0 hPa 0,0 mm 10,4 km/h (2 Bft) W-NW 292 1 min -5,6 C 19,1 km/h (3 Bft)
11.02.2016 14:30 5,4 C 8,4 C 45 % 1007,0 hPa 0,0 mm 10,4 km/h (2 Bft) W-NW 292 1 min -5,6 C 19,1 km/h (3 Bft)
11.02.2016 14:31 5,4 C 8,4 C 45 % 1007,0 hPa 0,0 mm 9,8 km/h (2 Bft) W 270 1 min -5,6 C 11,3 km/h (2 Bft)
11.02.2016 14:32 5,4 C 8,4 C 45 % 1007,0 hPa 0,0 mm 9,8 km/h (2 Bft) W 270 1 min -5,6 C 11,3 km/h (2 Bft)
11.02.2016 14:33 5,4 C 8,4 C 45 % 1007,0 hPa 0,0 mm 9,5 km/h (2 Bft) NW 315 1 min -5,6 C 8,9 km/h (2 Bft)
11.02.2016 14:34 5,4 C 8,4 C 45 % 1007,0 hPa 0,0 mm 9,5 km/h (2 Bft) NW 315 1 min -5,6 C 8,9 km/h (2 Bft)
11.02.2016 14:35 5,4 C 8,4 C 44 % 1007,0 hPa 0,0 mm 9,8 km/h (2 Bft) N-NW 337 1 min -5,9 C 10,4 km/h (2 Bft)
11.02.2016 14:37 5,5 C 8,3 C 44 % 1007,0 hPa 0,0 mm 10,4 km/h (2 Bft) W-SW 247 2 min -5,8 C 11,9 km/h (2 Bft)
11.02.2016 14:39 5,5 C 8,4 C 44 % 1007,0 hPa 0,0 mm 9,5 km/h (2 Bft) W 270 2 min -5,8 C 5,1 km/h (1 Bft)
11.02.2016 14:40 5,5 C 8,4 C 44 % 1007,0 hPa 0,0 mm 9,5 km/h (2 Bft) W 270 1 min -5,8 C 5,1 km/h (1 Bft)
11.02.2016 14:41 5,5 C 8,9 C 45 % 1007,0 hPa 0,0 mm 8,0 km/h (2 Bft) W-NW 292 1 min -5,5 C 10,1 km/h (2 Bft)
11.02.2016 14:42 5,5 C 8,9 C 45 % 1007,0 hPa 0,0 mm 8,0 km/h (2 Bft) W-NW 292 1 min -5,5 C 10,1 km/h (2 Bft)
11.02.2016 14:43 5,6 C 9,2 C 45 % 1006,9 hPa 0,0 mm 7,7 km/h (2 Bft) W 270 1 min -5,4 C 14,6 km/h (3 Bft)
11.02.2016 14:44 5,6 C 9,2 C 45 % 1006,9 hPa 0,0 mm 7,7 km/h (2 Bft) W 270 1 min -5,4 C 14,6 km/h (3 Bft)
11.02.2016 14:45 5,7 C 9,4 C 45 % 1006,9 hPa 0,0 mm 7,2 km/h (2 Bft) NW 315 1 min -5,3 C 9,5 km/h (2 Bft)
11.02.2016 14:46 5,7 C 9,4 C 45 % 1006,9 hPa 0,0 mm 7,2 km/h (2 Bft) NW 315 1 min -5,3 C 9,5 km/h (2 Bft)
11.02.2016 14:47 5,7 C 9,5 C 45 % 1006,9 hPa 0,0 mm 6,6 km/h (2 Bft) NW 315 1 min -5,3 C 3,3 km/h (1 Bft)
11.02.2016 14:48 5,7 C 9,5 C 45 % 1006,9 hPa 0,0 mm 6,6 km/h (2 Bft) NW 315 1 min -5,3 C 3,3 km/h (1 Bft)
11.02.2016 14:49 5,8 C 9,6 C 44 % 1006,9 hPa 0,0 mm 6,6 km/h (2 Bft) W-NW 292 1 min -5,5 C 15,8 km/h (3 Bft)
11.02.2016 14:50 5,8 C 9,6 C 44 % 1006,9 hPa 0,0 mm 6,6 km/h (2 Bft) W-NW 292 1 min -5,5 C 15,8 km/h (3 Bft)
11.02.2016 14:51 5,7 C 9,4 C 44 % 1006,9 hPa 0,0 mm 7,7 km/h (2 Bft) SW 225 1 min -5,6 C 11,3 km/h (2 Bft)
11.02.2016 14:52 5,7 C 9,4 C 44 % 1006,9 hPa 0,0 mm 7,7 km/h (2 Bft) SW 225 1 min -5,6 C 11,3 km/h (2 Bft)
11.02.2016 14:53 5,6 C 9,1 C 44 % 1006,9 hPa 0,0 mm 8,3 km/h (2 Bft) NW 315 1 min -5,7 C 13,4 km/h (3 Bft)
11.02.2016 14:54 5,6 C 9,1 C 44 % 1006,9 hPa 0,0 mm 8,3 km/h (2 Bft) NW 315 1 min -5,7 C 13,4 km/h (3 Bft)
11.02.2016 14:55 5,6 C 8,7 C 44 % 1006,9 hPa 0,0 mm 9,2 km/h (2 Bft) W-NW 292 1 min -5,7 C 14,6 km/h (3 Bft)
11.02.2016 14:56 5,6 C 8,7 C 44 % 1006,9 hPa 0,0 mm 9,2 km/h (2 Bft) W-NW 292 1 min -5,7 C 14,6 km/h (3 Bft)
11.02.2016 14:57 5,6 C 8,8 C 44 % 1006,9 hPa 0,0 mm 8,9 km/h (2 Bft) W 270 1 min -5,7 C 7,7 km/h (2 Bft)
11.02.2016 14:58 5,6 C 8,8 C 44 % 1006,9 hPa 0,0 mm 8,9 km/h (2 Bft) W 270 1 min -5,7 C 7,7 km/h (2 Bft)
11.02.2016 14:59 5,5 C 8,7 C 44 % 1006,9 hPa 0,0 mm 9,5 km/h (2 Bft) NW 315 1 min -5,8 C 8,9 km/h (2 Bft)
11.02.2016 15:00 5,5 C 8,7 C 44 % 1006,9 hPa 0,0 mm 9,5 km/h (2 Bft) NW 315 1 min -5,8 C 8,9 km/h (2 Bft)
11.02.2016 15:01 5,6 C 8,9 C 44 % 1006,9 hPa 0,0 mm 8,3 km/h (2 Bft) NW 315 1 min -5,7 C 7,2 km/h (2 Bft)
11.02.2016 15:02 5,6 C 8,9 C 44 % 1006,9 hPa 0,0 mm 8,3 km/h (2 Bft) NW 315 1 min -5,7 C 7,2 km/h (2 Bft)
11.02.2016 15:03 5,7 C 9,2 C 44 % 1006,8 hPa 0,0 mm 7,7 km/h (2 Bft) W 270 1 min -5,6 C 9,5 km/h (2 Bft)
11.02.2016 15:04 5,7 C 9,2 C 44 % 1006,8 hPa 0,0 mm 7,7 km/h (2 Bft) W 270 1 min -5,6 C 9,5 km/h (2 Bft)
11.02.2016 15:05 5,7 C 9,3 C 44 % 1006,8 hPa 0,0 mm 6,9 km/h (2 Bft) NW 315 1 min -5,6 C 7,2 km/h (2 Bft)
11.02.2016 15:06 5,7 C 9,3 C 44 % 1006,8 hPa 0,0 mm 6,9 km/h (2 Bft) NW 315 1 min -5,6 C 7,2 km/h (2 Bft)
11.02.2016 15:07 5,7 C 9,4 C 44 % 1006,8 hPa 0,0 mm 5,7 km/h (1 Bft) NW 315 1 min -5,6 C 8,3 km/h (2 Bft)
11.02.2016 15:08 5,7 C 9,4 C 44 % 1006,8 hPa 0,0 mm 5,7 km/h (1 Bft) NW 315 1 min -5,6 C 8,3 km/h (2 Bft)
11.02.2016 15:09 5,8 C 9,5 C 44 % 1006,8 hPa 0,0 mm 5,4 km/h (1 Bft) W-NW 292 1 min -5,5 C 5,1 km/h (1 Bft)
11.02.2016 15:10 5,8 C 9,5 C 44 % 1006,8 hPa 0,0 mm 5,4 km/h (1 Bft) W-NW 292 1 min -5,5 C 5,1 km/h (1 Bft)
11.02.2016 15:11 5,8 C 9,6 C 44 % 1006,8 hPa 0,0 mm 5,7 km/h (1 Bft) W-NW 292 1 min -5,5 C 16,7 km/h (3 Bft)
11.02.2016 15:12 5,8 C 9,6 C 44 % 1006,8 hPa 0,0 mm 5,7 km/h (1 Bft) W-NW 292 1 min -5,5 C 16,7 km/h (3 Bft)
11.02.2016 15:13 5,7 C 9,4 C 44 % 1006,8 hPa 0,0 mm 7,2 km/h (2 Bft) NW 315 1 min -5,6 C 16,1 km/h (3 Bft)
11.02.2016 15:14 5,7 C 9,4 C 44 % 1006,8 hPa 0,0 mm 7,2 km/h (2 Bft) NW 315 1 min -5,6 C 16,1 km/h (3 Bft)
11.02.2016 15:15 5,6 C 9,2 C 44 % 1006,8 hPa 0,0 mm 7,5 km/h (2 Bft) W-NW 292 1 min -5,7 C 9,2 km/h (2 Bft)
11.02.2016 15:16 5,6 C 9,2 C 44 % 1006,8 hPa 0,0 mm 7,5 km/h (2 Bft) W-NW 292 1 min -5,7 C 9,2 km/h (2 Bft)
11.02.2016 15:17 5,6 C 8,7 C 44 % 1006,8 hPa 0,0 mm 8,0 km/h (2 Bft) NW 315 1 min -5,7 C 5,7 km/h (1 Bft)
11.02.2016 15:18 5,6 C 8,7 C 44 % 1006,8 hPa 0,0 mm 8,0 km/h (2 Bft) NW 315 1 min -5,7 C 5,7 km/h (1 Bft)
11.02.2016 15:19 5,6 C 8,7 C 44 % 1006,8 hPa 0,0 mm 7,5 km/h (2 Bft) W 270 1 min -5,7 C 3,9 km/h (1 Bft)
11.02.2016 15:20 5,6 C 8,7 C 44 % 1006,8 hPa 0,0 mm 7,5 km/h (2 Bft) W 270 1 min -5,7 C 3,9 km/h (1 Bft)
11.02.2016 15:21 5,5 C 8,8 C 44 % 1006,8 hPa 0,0 mm 7,5 km/h (2 Bft) NW 315 1 min -5,8 C 3,9 km/h (1 Bft)
11.02.2016 15:22 5,5 C 8,8 C 44 % 1006,8 hPa 0,0 mm 7,5 km/h (2 Bft) NW 315 1 min -5,8 C 3,9 km/h (1 Bft)
11.02.2016 15:23 5,6 C 9,1 C 44 % 1006,5 hPa 0,0 mm 6,6 km/h (2 Bft) NW 315 1 min -5,7 C 11,9 km/h (2 Bft)
11.02.2016 15:24 5,6 C 9,1 C 44 % 1006,5 hPa 0,0 mm 6,6 km/h (2 Bft) NW 315 1 min -5,7 C 11,9 km/h (2 Bft)
11.02.2016 15:24 5,5 C 9,1 C 44 % 1006,5 hPa 0,0 mm 6,6 km/h (2 Bft) NW 315 0 min -5,8 C 11,9 km/h (2 Bft)
11.02.2016 15:26 5,5 C 9,1 C 44 % 1006,5 hPa 0,0 mm 6,3 km/h (2 Bft) W-NW 292 2 min -5,8 C 14,3 km/h (3 Bft)
11.02.2016 15:27 5,4 C 8,7 C 44 % 1006,5 hPa 0,0 mm 6,6 km/h (2 Bft) NW 315 1 min -5,9 C 14,3 km/h (3 Bft)
11.02.2016 15:28 5,4 C 8,7 C 44 % 1006,5 hPa 0,0 mm 6,6 km/h (2 Bft) NW 315 1 min -5,9 C 14,3 km/h (3 Bft)
11.02.2016 15:29 5,1 C 8,2 C 44 % 1006,5 hPa 0,0 mm 8,0 km/h (2 Bft) W-NW 292 1 min -6,1 C 8,3 km/h (2 Bft)
11.02.2016 15:30 5,1 C 8,2 C 44 % 1006,5 hPa 0,0 mm 8,0 km/h (2 Bft) W-NW 292 1 min -6,1 C 8,3 km/h (2 Bft)
11.02.2016 15:31 5,0 C 7,9 C 44 % 1006,5 hPa 0,0 mm 8,6 km/h (2 Bft) NW 315 1 min -6,2 C 10,4 km/h (2 Bft)
11.02.2016 15:32 5,0 C 7,9 C 44 % 1006,5 hPa 0,0 mm 8,6 km/h (2 Bft) NW 315 1 min -6,2 C 10,4 km/h (2 Bft)
11.02.2016 15:33 4,8 C 7,7 C 44 % 1006,5 hPa 0,0 mm 9,5 km/h (2 Bft) NW 315 1 min -6,4 C 8,0 km/h (2 Bft)
11.02.2016 15:34 4,8 C 7,7 C 44 % 1006,5 hPa 0,0 mm 9,5 km/h (2 Bft) NW 315 1 min -6,4 C 8,0 km/h (2 Bft)
11.02.2016 15:35 4,8 C 7,6 C 44 % 1006,5 hPa 0,0 mm 8,9 km/h (2 Bft) N 360 1 min -6,4 C 10,7 km/h (2 Bft)
11.02.2016 15:36 4,8 C 7,6 C 44 % 1006,5 hPa 0,0 mm 8,9 km/h (2 Bft) N 360 1 min -6,4 C 10,7 km/h (2 Bft)
11.02.2016 15:37 4,6 C 7,2 C 44 % 1006,5 hPa 0,0 mm 8,9 km/h (2 Bft) N-NW 337 1 min -6,6 C 10,1 km/h (2 Bft)
11.02.2016 15:38 4,6 C 7,2 C 44 % 1006,5 hPa 0,0 mm 8,9 km/h (2 Bft) N-NW 337 1 min -6,6 C 10,1 km/h (2 Bft)
11.02.2016 15:39 4,5 C 6,9 C 44 % 1006,5 hPa 0,0 mm 8,6 km/h (2 Bft) W-NW 292 1 min -6,7 C 13,1 km/h (3 Bft)
11.02.2016 15:40 4,5 C 6,9 C 44 % 1006,5 hPa 0,0 mm 8,6 km/h (2 Bft) W-NW 292 1 min -6,7 C 13,1 km/h (3 Bft)
11.02.2016 15:41 4,5 C 6,3 C 44 % 1006,5 hPa 0,0 mm 8,0 km/h (2 Bft) W-NW 292 1 min -6,7 C 3,6 km/h (1 Bft)
11.02.2016 15:42 4,5 C 6,3 C 44 % 1006,5 hPa 0,0 mm 8,0 km/h (2 Bft) W-NW 292 1 min -6,7 C 3,6 km/h (1 Bft)
11.02.2016 15:43 4,4 C 6,2 C 44 % 1006,4 hPa 0,0 mm 7,7 km/h (2 Bft) NW 315 1 min -6,8 C 12,8 km/h (3 Bft)
11.02.2016 15:44 4,4 C 6,2 C 44 % 1006,4 hPa 0,0 mm 7,7 km/h (2 Bft) NW 315 1 min -6,8 C 12,8 km/h (3 Bft)
11.02.2016 15:45 4,2 C 6,2 C 44 % 1006,4 hPa 0,0 mm 7,5 km/h (2 Bft) W-NW 292 1 min -6,9 C 5,7 km/h (1 Bft)
11.02.2016 15:46 4,2 C 6,2 C 44 % 1006,4 hPa 0,0 mm 7,5 km/h (2 Bft) W-NW 292 1 min -6,9 C 5,7 km/h (1 Bft)
11.02.2016 15:47 4,0 C 6,2 C 44 % 1006,4 hPa 0,0 mm 7,2 km/h (2 Bft) N-NW 337 1 min -7,1 C 13,1 km/h (3 Bft)
11.02.2016 15:48 4,0 C 6,2 C 44 % 1006,4 hPa 0,0 mm 7,2 km/h (2 Bft) N-NW 337 1 min -7,1 C 13,1 km/h (3 Bft)
11.02.2016 15:49 3,9 C 6,2 C 45 % 1006,4 hPa 0,0 mm 7,5 km/h (2 Bft) N 360 1 min -6,9 C 7,5 km/h (2 Bft)
11.02.2016 15:50 3,9 C 6,2 C 45 % 1006,4 hPa 0,0 mm 7,5 km/h (2 Bft) N 360 1 min -6,9 C 7,5 km/h (2 Bft)
11.02.2016 15:51 3,7 C 6,1 C 45 % 1006,4 hPa 0,0 mm 7,5 km/h (2 Bft) NW 315 1 min -7,1 C 12,5 km/h (3 Bft)
11.02.2016 15:52 3,7 C 6,1 C 45 % 1006,4 hPa 0,0 mm 7,5 km/h (2 Bft) NW 315 1 min -7,1 C 12,5 km/h (3 Bft)
11.02.2016 15:53 3,5 C 5,7 C 45 % 1006,4 hPa 0,0 mm 7,7 km/h (2 Bft) N 360 1 min -7,3 C 9,2 km/h (2 Bft)
11.02.2016 15:54 3,5 C 5,7 C 45 % 1006,4 hPa 0,0 mm 7,7 km/h (2 Bft) N 360 1 min -7,3 C 9,2 km/h (2 Bft)
11.02.2016 15:55 3,4 C 5,1 C 45 % 1006,4 hPa 0,0 mm 7,2 km/h (2 Bft) N-NW 337 1 min -7,4 C 14,0 km/h (3 Bft)
11.02.2016 15:56 3,4 C 5,1 C 45 % 1006,4 hPa 0,0 mm 7,2 km/h (2 Bft) N-NW 337 1 min -7,4 C 14,0 km/h (3 Bft)
11.02.2016 15:57 3,2 C 4,5 C 45 % 1006,4 hPa 0,0 mm 7,5 km/h (2 Bft) W 270 1 min -7,6 C 7,5 km/h (2 Bft)
11.02.2016 15:58 3,2 C 4,5 C 45 % 1006,4 hPa 0,0 mm 7,5 km/h (2 Bft) W 270 1 min -7,6 C 7,5 km/h (2 Bft)
11.02.2016 15:59 3,1 C 4,1 C 45 % 1006,4 hPa 0,0 mm 6,9 km/h (2 Bft) N-NW 337 1 min -7,7 C 15,2 km/h (3 Bft)
11.02.2016 16:00 3,1 C 4,1 C 45 % 1006,4 hPa 0,0 mm 6,9 km/h (2 Bft) N-NW 337 1 min -7,7 C 15,2 km/h (3 Bft)
11.02.2016 16:01 3,0 C 3,6 C 45 % 1006,4 hPa 0,0 mm 6,9 km/h (2 Bft) W-SW 247 0 min -7,7 C 10,7 km/h (2 Bft)
11.02.2016 16:02 3,0 C 3,6 C 45 % 1006,4 hPa 0,0 mm 6,9 km/h (2 Bft) W-SW 247 0 min -7,7 C 10,7 km/h (2 Bft)
11.02.2016 16:03 3,0 C 3,1 C 45 % 1006,6 hPa 0,0 mm 7,5 km/h (2 Bft) NW 315 0 min -7,7 C 11,9 km/h (2 Bft)
11.02.2016 16:04 3,0 C 3,1 C 45 % 1006,6 hPa 0,0 mm 7,5 km/h (2 Bft) NW 315 0 min -7,7 C 11,9 km/h (2 Bft)
11.02.2016 16:05 2,9 C 2,8 C 45 % 1006,6 hPa 0,0 mm 7,7 km/h (2 Bft) NW 315 0 min -7,8 C 8,0 km/h (2 Bft)
11.02.2016 16:06 2,9 C 2,8 C 45 % 1006,6 hPa 0,0 mm 7,7 km/h (2 Bft) NW 315 0 min -7,8 C 8,0 km/h (2 Bft)
11.02.2016 16:07 2,7 C 2,5 C 46 % 1006,6 hPa 0,0 mm 7,7 km/h (2 Bft) NW 315 0 min -7,7 C 8,3 km/h (2 Bft)
11.02.2016 16:08 2,7 C 2,5 C 46 % 1006,6 hPa 0,0 mm 7,7 km/h (2 Bft) NW 315 0 min -7,7 C 8,3 km/h (2 Bft)
11.02.2016 16:09 2,6 C 2,3 C 46 % 1006,6 hPa 0,0 mm 8,0 km/h (2 Bft) NW 315 0 min -7,8 C 10,1 km/h (2 Bft)
11.02.2016 16:10 2,6 C 2,3 C 46 % 1006,6 hPa 0,0 mm 8,0 km/h (2 Bft) NW 315 0 min -7,8 C 10,1 km/h (2 Bft)
11.02.2016 16:11 2,5 C 2,3 C 46 % 1006,6 hPa 0,0 mm 7,2 km/h (2 Bft) NW 315 0 min -7,9 C 6,0 km/h (2 Bft)
11.02.2016 16:12 2,5 C 2,3 C 46 % 1006,6 hPa 0,0 mm 7,2 km/h (2 Bft) NW 315 0 min -7,9 C 6,0 km/h (2 Bft)
11.02.2016 16:13 2,3 C 2,2 C 46 % 1006,6 hPa 0,0 mm 6,0 km/h (2 Bft) N-NO 22 0 min -8,1 C 11,3 km/h (2 Bft)
11.02.2016 16:14 2,3 C 2,2 C 46 % 1006,6 hPa 0,0 mm 6,0 km/h (2 Bft) N-NO 22 0 min -8,1 C 11,3 km/h (2 Bft)
11.02.2016 16:15 2,2 C 2,2 C 46 % 1006,6 hPa 0,0 mm 5,4 km/h (1 Bft) NW 315 0 min -8,2 C 3,9 km/h (1 Bft)
11.02.2016 16:16 2,2 C 2,2 C 46 % 1006,6 hPa 0,0 mm 5,4 km/h (1 Bft) NW 315 0 min -8,2 C 3,9 km/h (1 Bft)
11.02.2016 16:17 2,2 C 2,1 C 46 % 1006,6 hPa 0,0 mm 5,1 km/h (1 Bft) N 360 0 min -8,2 C 3,3 km/h (1 Bft)
11.02.2016 16:18 2,2 C 2,1 C 46 % 1006,6 hPa 0,0 mm 5,1 km/h (1 Bft) N 360 0 min -8,2 C 3,3 km/h (1 Bft)
11.02.2016 16:19 2,1 C 2,0 C 46 % 1006,6 hPa 0,0 mm 5,1 km/h (1 Bft) N 360 0 min -8,3 C 6,3 km/h (2 Bft)
11.02.2016 16:20 2,1 C 2,0 C 46 % 1006,6 hPa 0,0 mm 5,1 km/h (1 Bft) N 360 0 min -8,3 C 6,3 km/h (2 Bft)
11.02.2016 16:21 2,1 C 2,0 C 47 % 1006,6 hPa 0,0 mm 4,8 km/h (1 Bft) W 270 0 min -8,0 C 3,3 km/h (1 Bft)
11.02.2016 16:22 2,1 C 2,0 C 47 % 1006,6 hPa 0,0 mm 4,8 km/h (1 Bft) W 270 0 min -8,0 C 3,3 km/h (1 Bft)
11.02.2016 16:23 1,9 C 1,8 C 47 % 1006,3 hPa 0,0 mm 4,5 km/h (1 Bft) NW 315 0 min -8,2 C 3,0 km/h (1 Bft)
11.02.2016 16:24 1,9 C 1,8 C 47 % 1006,3 hPa 0,0 mm 4,5 km/h (1 Bft) NW 315 0 min -8,2 C 3,0 km/h (1 Bft)
11.02.2016 16:25 1,8 C 1,7 C 47 % 1006,3 hPa 0,0 mm 4,2 km/h (1 Bft) W-NW 292 0 min -8,3 C 5,1 km/h (1 Bft)
11.02.2016 16:26 1,8 C 1,7 C 47 % 1006,3 hPa 0,0 mm 4,2 km/h (1 Bft) W-NW 292 0 min -8,3 C 5,1 km/h (1 Bft)
11.02.2016 16:27 1,7 C 1,5 C 47 % 1006,3 hPa 0,0 mm 4,5 km/h (1 Bft) W-NW 292 0 min -8,4 C 12,5 km/h (3 Bft)
11.02.2016 16:28 1,7 C 1,5 C 47 % 1006,3 hPa 0,0 mm 4,5 km/h (1 Bft) W-NW 292 0 min -8,4 C 12,5 km/h (3 Bft)
11.02.2016 16:29 1,7 C 1,5 C 47 % 1006,3 hPa 0,0 mm 5,1 km/h (1 Bft) NW 315 0 min -8,4 C 8,3 km/h (2 Bft)
11.02.2016 16:30 1,7 C 1,5 C 47 % 1006,3 hPa 0,0 mm 5,1 km/h (1 Bft) NW 315 0 min -8,4 C 8,3 km/h (2 Bft)
11.02.2016 16:31 1,7 C 1,5 C 47 % 1006,3 hPa 0,0 mm 5,1 km/h (1 Bft) W 270 0 min -8,4 C 6,9 km/h (2 Bft)
11.02.2016 16:32 1,7 C 1,5 C 47 % 1006,3 hPa 0,0 mm 5,1 km/h (1 Bft) W 270 0 min -8,4 C 6,9 km/h (2 Bft)
11.02.2016 16:33 1,8 C 1,5 C 47 % 1006,3 hPa 0,0 mm 5,7 km/h (1 Bft) W 270 0 min -8,3 C 3,0 km/h (1 Bft)
11.02.2016 16:34 1,8 C 1,5 C 47 % 1006,3 hPa 0,0 mm 5,7 km/h (1 Bft) W 270 0 min -8,3 C 3,0 km/h (1 Bft)
11.02.2016 16:35 1,7 C 1,4 C 47 % 1006,3 hPa 0,0 mm 6,3 km/h (2 Bft) S-SO 157 0 min -8,4 C 4,2 km/h (1 Bft)
11.02.2016 16:36 1,7 C 1,4 C 47 % 1006,3 hPa 0,0 mm 6,3 km/h (2 Bft) S-SO 157 0 min -8,4 C 4,2 km/h (1 Bft)
11.02.2016 16:37 1,6 C 1,3 C 48 % 1006,3 hPa 0,0 mm 6,3 km/h (2 Bft) NW 315 0 min -8,2 C 3,6 km/h (1 Bft)
11.02.2016 16:38 1,6 C 1,3 C 48 % 1006,3 hPa 0,0 mm 6,3 km/h (2 Bft) NW 315 0 min -8,2 C 3,6 km/h (1 Bft)
11.02.2016 16:39 1,5 C 1,2 C 48 % 1006,3 hPa 0,0 mm 5,7 km/h (1 Bft) NW 315 0 min -8,3 C 8,9 km/h (2 Bft)
11.02.2016 16:40 1,5 C 1,2 C 48 % 1006,3 hPa 0,0 mm 5,7 km/h (1 Bft) NW 315 0 min -8,3 C 8,9 km/h (2 Bft)
11.02.2016 16:41 1,5 C 1,2 C 48 % 1006,3 hPa 0,0 mm 5,4 km/h (1 Bft) NW 315 0 min -8,3 C 9,8 km/h (2 Bft)
11.02.2016 16:42 1,5 C 1,2 C 48 % 1006,3 hPa 0,0 mm 5,4 km/h (1 Bft) NW 315 0 min -8,3 C 9,8 km/h (2 Bft)
11.02.2016 16:43 1,5 C 1,3 C 48 % 1006,3 hPa 0,0 mm 5,1 km/h (1 Bft) W-NW 292 0 min -8,3 C 5,7 km/h (1 Bft)
11.02.2016 16:44 1,5 C 1,3 C 48 % 1006,3 hPa 0,0 mm 5,1 km/h (1 Bft) W-NW 292 0 min -8,3 C 5,7 km/h (1 Bft)
11.02.2016 16:45 1,4 C 1,1 C 48 % 1006,3 hPa 0,0 mm 5,7 km/h (1 Bft) W 270 0 min -8,4 C 10,4 km/h (2 Bft)
11.02.2016 16:46 1,4 C 1,1 C 48 % 1006,3 hPa 0,0 mm 5,7 km/h (1 Bft) W 270 0 min -8,4 C 10,4 km/h (2 Bft)
11.02.2016 16:47 1,3 C 1,1 C 48 % 1006,3 hPa 0,0 mm 4,8 km/h (1 Bft) W 270 0 min -8,5 C 0,0 km/h (0 Bft)
11.02.2016 16:48 1,3 C 1,1 C 48 % 1006,3 hPa 0,0 mm 4,8 km/h (1 Bft) W 270 0 min -8,5 C 0,0 km/h (0 Bft)
11.02.2016 16:49 1,2 C 0,9 C 48 % 1006,3 hPa 0,0 mm 5,4 km/h (1 Bft) NW 315 0 min -8,6 C 9,2 km/h (2 Bft)
11.02.2016 16:50 1,2 C 0,9 C 48 % 1006,3 hPa 0,0 mm 5,4 km/h (1 Bft) NW 315 0 min -8,6 C 9,2 km/h (2 Bft)
11.02.2016 16:51 1,1 C 0,9 C 48 % 1006,3 hPa 0,0 mm 4,8 km/h (1 Bft) W-SW 247 0 min -8,7 C 4,2 km/h (1 Bft)
11.02.2016 16:52 1,1 C 0,9 C 48 % 1006,3 hPa 0,0 mm 4,8 km/h (1 Bft) W-SW 247 0 min -8,7 C 4,2 km/h (1 Bft)
11.02.2016 16:53 1,0 C 0,8 C 48 % 1006,3 hPa 0,0 mm 4,5 km/h (1 Bft) W-SW 247 0 min -8,8 C 5,4 km/h (1 Bft)
11.02.2016 16:54 1,0 C 0,8 C 48 % 1006,3 hPa 0,0 mm 4,5 km/h (1 Bft) W-SW 247 0 min -8,8 C 5,4 km/h (1 Bft)
11.02.2016 16:55 0,9 C 0,7 C 48 % 1006,3 hPa 0,0 mm 3,9 km/h (1 Bft) W 270 0 min -8,8 C 0,0 km/h (0 Bft)
11.02.2016 16:56 0,9 C 0,7 C 48 % 1006,3 hPa 0,0 mm 3,9 km/h (1 Bft) W 270 0 min -8,8 C 0,0 km/h (0 Bft)
11.02.2016 16:57 0,8 C 0,6 C 48 % 1006,3 hPa 0,0 mm 3,0 km/h (1 Bft) NW 315 0 min -8,9 C 4,8 km/h (1 Bft)
11.02.2016 16:58 0,8 C 0,6 C 48 % 1006,3 hPa 0,0 mm 3,0 km/h (1 Bft) NW 315 0 min -8,9 C 4,8 km/h (1 Bft)
11.02.2016 16:59 0,7 C 0,5 C 48 % 1006,3 hPa 0,0 mm 2,7 km/h (1 Bft) N-NO 22 0 min -9,0 C 0,0 km/h (0 Bft)
11.02.2016 17:00 0,7 C 0,5 C 48 % 1006,3 hPa 0,0 mm 2,7 km/h (1 Bft) N-NO 22 0 min -9,0 C 0,0 km/h (0 Bft)
11.02.2016 17:01 0,7 C 0,4 C 48 % 1006,3 hPa 0,0 mm 1,8 km/h (1 Bft) SW 225 0 min -9,0 C 0,0 km/h (0 Bft)
11.02.2016 17:02 0,7 C 0,4 C 48 % 1006,3 hPa 0,0 mm 1,8 km/h (1 Bft) SW 225 0 min -9,0 C 0,0 km/h (0 Bft)
11.02.2016 17:03 0,7 C 0,4 C 48 % 1006,4 hPa 0,0 mm 1,2 km/h (1 Bft) W 270 0 min -9,0 C 0,0 km/h (0 Bft)
11.02.2016 17:04 0,7 C 0,4 C 48 % 1006,4 hPa 0,0 mm 1,2 km/h (1 Bft) W 270 0 min -9,0 C 0,0 km/h (0 Bft)
11.02.2016 17:05 0,7 C 0,4 C 48 % 1006,4 hPa 0,0 mm 1,2 km/h (1 Bft) W-NW 292 0 min -9,0 C 3,3 km/h (1 Bft)
11.02.2016 17:06 0,7 C 0,4 C 48 % 1006,4 hPa 0,0 mm 1,2 km/h (1 Bft) W-NW 292 0 min -9,0 C 3,3 km/h (1 Bft)
11.02.2016 17:07 0,7 C 0,3 C 48 % 1006,4 hPa 0,0 mm 1,2 km/h (1 Bft) SW 225 0 min -9,0 C 0,0 km/h (0 Bft)
11.02.2016 17:08 0,7 C 0,3 C 48 % 1006,4 hPa 0,0 mm 1,2 km/h (1 Bft) SW 225 0 min -9,0 C 0,0 km/h (0 Bft)
11.02.2016 17:09 0,6 C 0,3 C 48 % 1006,4 hPa 0,0 mm 0,9 km/h (0 Bft) SW 225 0 min -9,1 C 0,0 km/h (0 Bft)
11.02.2016 17:10 0,6 C 0,3 C 48 % 1006,4 hPa 0,0 mm 0,9 km/h (0 Bft) SW 225 0 min -9,1 C 0,0 km/h (0 Bft)
11.02.2016 17:11 0,6 C 0,2 C 48 % 1006,4 hPa 0,0 mm 1,2 km/h (1 Bft) W-SW 247 0 min -9,1 C 4,5 km/h (1 Bft)
11.02.2016 17:12 0,6 C 0,2 C 48 % 1006,4 hPa 0,0 mm 1,2 km/h (1 Bft) W-SW 247 0 min -9,1 C 4,5 km/h (1 Bft)
11.02.2016 17:13 0,7 C 0,3 C 48 % 1006,4 hPa 0,0 mm 1,5 km/h (1 Bft) W-SW 247 0 min -9,0 C 3,0 km/h (1 Bft)
11.02.2016 17:14 0,7 C 0,3 C 48 % 1006,4 hPa 0,0 mm 1,5 km/h (1 Bft) W-SW 247 0 min -9,0 C 3,0 km/h (1 Bft)
11.02.2016 17:15 0,7 C 0,3 C 49 % 1006,4 hPa 0,0 mm 1,8 km/h (1 Bft) S 180 0 min -8,8 C 4,2 km/h (1 Bft)
11.02.2016 17:16 0,7 C 0,3 C 49 % 1006,4 hPa 0,0 mm 1,8 km/h (1 Bft) S 180 0 min -8,8 C 4,2 km/h (1 Bft)
11.02.2016 17:17 0,7 C 0,2 C 49 % 1006,4 hPa 0,0 mm 2,1 km/h (1 Bft) SW 225 0 min -8,8 C 0,0 km/h (0 Bft)
11.02.2016 17:18 0,7 C 0,2 C 49 % 1006,4 hPa 0,0 mm 2,1 km/h (1 Bft) SW 225 0 min -8,8 C 0,0 km/h (0 Bft)
11.02.2016 17:19 0,7 C 0,2 C 50 % 1006,4 hPa 0,0 mm 2,4 km/h (1 Bft) SW 225 0 min -8,5 C 3,9 km/h (1 Bft)
11.02.2016 17:20 0,7 C 0,2 C 50 % 1006,4 hPa 0,0 mm 2,4 km/h (1 Bft) SW 225 0 min -8,5 C 3,9 km/h (1 Bft)
11.02.2016 17:21 0,7 C 0,2 C 50 % 1006,4 hPa 0,0 mm 2,7 km/h (1 Bft) S 180 0 min -8,5 C 0,0 km/h (0 Bft)
11.02.2016 17:22 0,7 C 0,2 C 50 % 1006,4 hPa 0,0 mm 2,7 km/h (1 Bft) S 180 0 min -8,5 C 0,0 km/h (0 Bft)
11.02.2016 17:23 0,6 C 0,1 C 51 % 1006,4 hPa 0,0 mm 2,7 km/h (1 Bft) S 180 0 min -8,3 C 4,5 km/h (1 Bft)
11.02.2016 17:24 0,6 C 0,1 C 51 % 1006,4 hPa 0,0 mm 2,7 km/h (1 Bft) S 180 0 min -8,3 C 4,5 km/h (1 Bft)
11.02.2016 17:25 0,5 C 0,1 C 51 % 1006,4 hPa 0,0 mm 2,4 km/h (1 Bft) S 180 0 min -8,4 C 5,1 km/h (1 Bft)
11.02.2016 17:26 0,5 C 0,1 C 51 % 1006,4 hPa 0,0 mm 2,4 km/h (1 Bft) S 180 0 min -8,4 C 5,1 km/h (1 Bft)
11.02.2016 17:27 0,6 C 0,1 C 52 % 1006,4 hPa 0,0 mm 2,1 km/h (1 Bft) S-SW 202 0 min -8,1 C 3,0 km/h (1 Bft)
11.02.2016 17:28 0,6 C 0,1 C 52 % 1006,4 hPa 0,0 mm 2,1 km/h (1 Bft) S-SW 202 0 min -8,1 C 3,0 km/h (1 Bft)
11.02.2016 17:29 0,6 C 0,1 C 52 % 1006,4 hPa 0,0 mm 2,4 km/h (1 Bft) S 180 0 min -8,1 C 3,0 km/h (1 Bft)
11.02.2016 17:30 0,6 C 0,1 C 52 % 1006,4 hPa 0,0 mm 2,4 km/h (1 Bft) S 180 0 min -8,1 C 3,0 km/h (1 Bft)
11.02.2016 17:31 0,5 C 0,0 C 52 % 1006,4 hPa 0,0 mm 2,4 km/h (1 Bft) S 180 0 min -8,2 C 4,5 km/h (1 Bft)
11.02.2016 17:32 0,5 C 0,0 C 52 % 1006,4 hPa 0,0 mm 2,4 km/h (1 Bft) S 180 0 min -8,2 C 4,5 km/h (1 Bft)
11.02.2016 17:33 0,5 C 0,0 C 52 % 1006,4 hPa 0,0 mm 2,4 km/h (1 Bft) S-SO 157 0 min -8,2 C 0,0 km/h (0 Bft)
11.02.2016 17:34 0,5 C 0,0 C 52 % 1006,4 hPa 0,0 mm 2,4 km/h (1 Bft) S-SO 157 0 min -8,2 C 0,0 km/h (0 Bft)
11.02.2016 17:35 0,4 C 0,0 C 53 % 1006,4 hPa 0,0 mm 2,4 km/h (1 Bft) S-SW 202 0 min -8,0 C 4,2 km/h (1 Bft)
11.02.2016 17:36 0,4 C 0,0 C 53 % 1006,4 hPa 0,0 mm 2,4 km/h (1 Bft) S-SW 202 0 min -8,0 C 4,2 km/h (1 Bft)
11.02.2016 17:37 0,4 C 0,0 C 53 % 1006,4 hPa 0,0 mm 1,8 km/h (1 Bft) SO 135 0 min -8,0 C 0,0 km/h (0 Bft)
11.02.2016 17:38 0,4 C 0,0 C 53 % 1006,4 hPa 0,0 mm 1,8 km/h (1 Bft) SO 135 0 min -8,0 C 0,0 km/h (0 Bft)
11.02.2016 17:39 0,3 C -0,1 C 53 % 1006,4 hPa 0,0 mm 1,8 km/h (1 Bft) S 180 0 min -8,1 C 3,3 km/h (1 Bft)
11.02.2016 17:40 0,3 C -0,1 C 53 % 1006,4 hPa 0,0 mm 1,8 km/h (1 Bft) S 180 0 min -8,1 C 3,3 km/h (1 Bft)
11.02.2016 17:41 0,3 C -0,1 C 54 % 1006,4 hPa 0,0 mm 2,1 km/h (1 Bft) S 180 0 min -7,9 C 5,1 km/h (1 Bft)
11.02.2016 17:42 0,3 C -0,1 C 54 % 1006,4 hPa 0,0 mm 2,1 km/h (1 Bft) S 180 0 min -7,9 C 5,1 km/h (1 Bft)
11.02.2016 17:43 0,3 C -0,1 C 54 % 1006,2 hPa 0,0 mm 2,1 km/h (1 Bft) SO 135 0 min -7,9 C 3,6 km/h (1 Bft)
11.02.2016 17:44 0,3 C -0,1 C 54 % 1006,2 hPa 0,0 mm 2,1 km/h (1 Bft) SO 135 0 min -7,9 C 3,6 km/h (1 Bft)
11.02.2016 17:45 0,2 C -0,2 C 54 % 1006,2 hPa 0,0 mm 3,0 km/h (1 Bft) SO 135 0 min -8,0 C 6,3 km/h (2 Bft)
11.02.2016 17:46 0,2 C -0,2 C 54 % 1006,2 hPa 0,0 mm 3,0 km/h (1 Bft) SO 135 0 min -8,0 C 6,3 km/h (2 Bft)
11.02.2016 17:47 0,2 C -0,2 C 54 % 1006,2 hPa 0,0 mm 3,6 km/h (1 Bft) SO 135 0 min -8,0 C 3,9 km/h (1 Bft)
11.02.2016 17:48 0,2 C -0,2 C 54 % 1006,2 hPa 0,0 mm 3,6 km/h (1 Bft) SO 135 0 min -8,0 C 3,9 km/h (1 Bft)
11.02.2016 17:49 0,1 C -0,2 C 54 % 1006,2 hPa 0,0 mm 3,3 km/h (1 Bft) SO 135 0 min -8,1 C 0,0 km/h (0 Bft)
11.02.2016 17:50 0,1 C -0,2 C 54 % 1006,2 hPa 0,0 mm 3,3 km/h (1 Bft) SO 135 0 min -8,1 C 0,0 km/h (0 Bft)
11.02.2016 17:51 -0,2 C -0,5 C 54 % 1006,2 hPa 0,0 mm 2,7 km/h (1 Bft) N-NO 22 0 min -8,4 C 0,0 km/h (0 Bft)
11.02.2016 17:52 -0,2 C -0,5 C 54 % 1006,2 hPa 0,0 mm 2,7 km/h (1 Bft) N-NO 22 0 min -8,4 C 0,0 km/h (0 Bft)
11.02.2016 17:53 -0,3 C -0,6 C 55 % 1006,2 hPa 0,0 mm 2,1 km/h (1 Bft) O-SO 112 0 min -8,2 C 0,0 km/h (0 Bft)
11.02.2016 17:54 -0,3 C -0,6 C 55 % 1006,2 hPa 0,0 mm 2,1 km/h (1 Bft) O-SO 112 0 min -8,2 C 0,0 km/h (0 Bft)
11.02.2016 17:55 -0,4 C -0,7 C 55 % 1006,2 hPa 0,0 mm 1,5 km/h (1 Bft) S 180 0 min -8,3 C 0,0 km/h (0 Bft)
11.02.2016 17:56 -0,4 C -0,7 C 55 % 1006,2 hPa 0,0 mm 1,5 km/h (1 Bft) S 180 0 min -8,3 C 0,0 km/h (0 Bft)
11.02.2016 17:57 -0,5 C -0,9 C 55 % 1006,2 hPa 0,0 mm 0,6 km/h (0 Bft) O 90 0 min -8,4 C 0,0 km/h (0 Bft)
11.02.2016 17:58 -0,5 C -0,9 C 55 % 1006,2 hPa 0,0 mm 0,6 km/h (0 Bft) O 90 0 min -8,4 C 0,0 km/h (0 Bft)
11.02.2016 17:59 -0,6 C -1,0 C 55 % 1006,2 hPa 0,0 mm 0,3 km/h (0 Bft) O-NO 67 0 min -8,5 C 0,0 km/h (0 Bft)
11.02.2016 18:00 -0,6 C -1,0 C 55 % 1006,2 hPa 0,0 mm 0,3 km/h (0 Bft) O-NO 67 0 min -8,5 C 0,0 km/h (0 Bft)
11.02.2016 18:01 -0,7 C -1,1 C 56 % 1006,2 hPa 0,0 mm 0,0 km/h (0 Bft) S 180 0 min -8,4 C 0,0 km/h (0 Bft)
11.02.2016 18:02 -0,7 C -1,1 C 56 % 1006,2 hPa 0,0 mm 0,0 km/h (0 Bft) S 180 0 min -8,4 C 0,0 km/h (0 Bft)
11.02.2016 18:03 -0,8 C -1,3 C 56 % 1006,3 hPa 0,0 mm 0,0 km/h (0 Bft) S 180 0 min -8,5 C 0,0 km/h (0 Bft)
11.02.2016 18:04 -0,8 C -1,3 C 56 % 1006,3 hPa 0,0 mm 0,0 km/h (0 Bft) S 180 0 min -8,5 C 0,0 km/h (0 Bft)
11.02.2016 18:05 -0,8 C -1,3 C 56 % 1006,3 hPa 0,0 mm 0,6 km/h (0 Bft) S 180 0 min -8,5 C 4,2 km/h (1 Bft)
11.02.2016 18:06 -0,8 C -1,3 C 56 % 1006,3 hPa 0,0 mm 0,6 km/h (0 Bft) S 180 0 min -8,5 C 4,2 km/h (1 Bft)
11.02.2016 18:07 -0,8 C -1,3 C 56 % 1006,3 hPa 0,0 mm 1,2 km/h (1 Bft) S 180 0 min -8,5 C 3,0 km/h (1 Bft)
11.02.2016 18:08 -0,8 C -1,3 C 56 % 1006,3 hPa 0,0 mm 1,2 km/h (1 Bft) S 180 0 min -8,5 C 3,0 km/h (1 Bft)
11.02.2016 18:09 -0,9 C -1,4 C 56 % 1006,3 hPa 0,0 mm 1,2 km/h (1 Bft) S 180 0 min -8,5 C 3,3 km/h (1 Bft)
11.02.2016 18:10 -0,9 C -1,4 C 56 % 1006,3 hPa 0,0 mm 1,2 km/h (1 Bft) S 180 0 min -8,5 C 3,3 km/h (1 Bft)
11.02.2016 18:11 -0,9 C -1,4 C 56 % 1006,3 hPa 0,0 mm 1,8 km/h (1 Bft) S-SW 202 0 min -8,5 C 4,2 km/h (1 Bft)
11.02.2016 18:12 -0,9 C -1,4 C 56 % 1006,3 hPa 0,0 mm 1,8 km/h (1 Bft) S-SW 202 0 min -8,5 C 4,2 km/h (1 Bft)
11.02.2016 18:13 -1,0 C -1,5 C 56 % 1006,3 hPa 0,0 mm 2,1 km/h (1 Bft) S-SO 157 0 min -8,6 C 6,0 km/h (2 Bft)
11.02.2016 18:14 -1,0 C -1,5 C 56 % 1006,3 hPa 0,0 mm 2,1 km/h (1 Bft) S-SO 157 0 min -8,6 C 6,0 km/h (2 Bft)
11.02.2016 18:15 -1,0 C -1,5 C 57 % 1006,3 hPa 0,0 mm 2,1 km/h (1 Bft) SO 135 0 min -8,4 C 0,0 km/h (0 Bft)
11.02.2016 18:16 -1,0 C -1,5 C 57 % 1006,3 hPa 0,0 mm 2,1 km/h (1 Bft) SO 135 0 min -8,4 C 0,0 km/h (0 Bft)
11.02.2016 18:17 -1,1 C -1,6 C 57 % 1006,3 hPa 0,0 mm 2,4 km/h (1 Bft) S-SO 157 0 min -8,5 C 5,4 km/h (1 Bft)
11.02.2016 18:18 -1,1 C -1,6 C 57 % 1006,3 hPa 0,0 mm 2,4 km/h (1 Bft) S-SO 157 0 min -8,5 C 5,4 km/h (1 Bft)
11.02.2016 18:19 -1,0 C -1,5 C 57 % 1006,3 hPa 0,0 mm 3,3 km/h (1 Bft) S 180 0 min -8,4 C 3,0 km/h (1 Bft)
11.02.2016 18:20 -1,0 C -1,5 C 57 % 1006,3 hPa 0,0 mm 3,3 km/h (1 Bft) S 180 0 min -8,4 C 3,0 km/h (1 Bft)
11.02.2016 18:21 -1,1 C -1,6 C 57 % 1006,3 hPa 0,0 mm 3,3 km/h (1 Bft) W-SW 247 0 min -8,5 C 3,3 km/h (1 Bft)
11.02.2016 18:22 -1,1 C -1,6 C 57 % 1006,3 hPa 0,0 mm 3,3 km/h (1 Bft) W-SW 247 0 min -8,5 C 3,3 km/h (1 Bft)
11.02.2016 18:23 -1,2 C -1,7 C 57 % 1006,4 hPa 0,0 mm 3,0 km/h (1 Bft) S 180 0 min -8,6 C 0,0 km/h (0 Bft)
11.02.2016 18:24 -1,2 C -1,7 C 57 % 1006,4 hPa 0,0 mm 3,0 km/h (1 Bft) S 180 0 min -8,6 C 0,0 km/h (0 Bft)
11.02.2016 18:25 -1,2 C -1,7 C 58 % 1006,4 hPa 0,0 mm 2,7 km/h (1 Bft) S-SW 202 0 min -8,4 C 3,0 km/h (1 Bft)
11.02.2016 18:26 -1,2 C -1,7 C 58 % 1006,4 hPa 0,0 mm 2,7 km/h (1 Bft) S-SW 202 0 min -8,4 C 3,0 km/h (1 Bft)
11.02.2016 18:27 -1,2 C -1,7 C 58 % 1006,4 hPa 0,0 mm 2,7 km/h (1 Bft) SO 135 0 min -8,4 C 3,6 km/h (1 Bft)
11.02.2016 18:28 -1,2 C -1,7 C 58 % 1006,4 hPa 0,0 mm 2,7 km/h (1 Bft) SO 135 0 min -8,4 C 3,6 km/h (1 Bft)
11.02.2016 18:29 -1,3 C -1,8 C 58 % 1006,4 hPa 0,0 mm 2,1 km/h (1 Bft) SO 135 0 min -8,5 C 5,1 km/h (1 Bft)
11.02.2016 18:30 -1,3 C -1,8 C 58 % 1006,4 hPa 0,0 mm 2,1 km/h (1 Bft) SO 135 0 min -8,5 C 5,1 km/h (1 Bft)
11.02.2016 18:31 -1,3 C -1,8 C 59 % 1006,4 hPa 0,0 mm 2,7 km/h (1 Bft) S-SO 157 0 min -8,3 C 7,2 km/h (2 Bft)
11.02.2016 18:32 -1,3 C -1,8 C 59 % 1006,4 hPa 0,0 mm 2,7 km/h (1 Bft) S-SO 157 0 min -8,3 C 7,2 km/h (2 Bft)
11.02.2016 18:33 -1,4 C -1,9 C 59 % 1006,4 hPa 0,0 mm 3,3 km/h (1 Bft) S 180 0 min -8,4 C 5,7 km/h (1 Bft)
11.02.2016 18:34 -1,4 C -1,9 C 59 % 1006,4 hPa 0,0 mm 3,3 km/h (1 Bft) S 180 0 min -8,4 C 5,7 km/h (1 Bft)
11.02.2016 18:35 -1,4 C -1,9 C 59 % 1006,4 hPa 0,0 mm 4,2 km/h (1 Bft) S-SO 157 0 min -8,4 C 4,2 km/h (1 Bft)
11.02.2016 18:36 -1,4 C -1,9 C 59 % 1006,4 hPa 0,0 mm 4,2 km/h (1 Bft) S-SO 157 0 min -8,4 C 4,2 km/h (1 Bft)
11.02.2016 18:37 -1,4 C -1,9 C 59 % 1006,4 hPa 0,0 mm 4,5 km/h (1 Bft) S-SO 157 0 min -8,4 C 4,2 km/h (1 Bft)
11.02.2016 18:38 -1,4 C -1,9 C 59 % 1006,4 hPa 0,0 mm 4,5 km/h (1 Bft) S-SO 157 0 min -8,4 C 4,2 km/h (1 Bft)
11.02.2016 18:39 -1,4 C -2,0 C 60 % 1006,4 hPa 0,0 mm 5,1 km/h (1 Bft) S-SO 157 0 min -8,1 C 4,8 km/h (1 Bft)
11.02.2016 18:40 -1,4 C -2,0 C 60 % 1006,4 hPa 0,0 mm 5,1 km/h (1 Bft) S-SO 157 0 min -8,1 C 4,8 km/h (1 Bft)
11.02.2016 18:41 -1,5 C -2,1 C 60 % 1006,4 hPa 0,0 mm 4,8 km/h (1 Bft) S-SO 157 0 min -8,2 C 3,9 km/h (1 Bft)
11.02.2016 18:42 -1,5 C -2,1 C 60 % 1006,4 hPa 0,0 mm 4,8 km/h (1 Bft) S-SO 157 0 min -8,2 C 3,9 km/h (1 Bft)
11.02.2016 18:43 -1,5 C -2,0 C 61 % 1006,7 hPa 0,0 mm 4,5 km/h (1 Bft) S-SO 157 0 min -8,0 C 4,5 km/h (1 Bft)
11.02.2016 18:44 -1,5 C -2,0 C 61 % 1006,7 hPa 0,0 mm 4,5 km/h (1 Bft) S-SO 157 0 min -8,0 C 4,5 km/h (1 Bft)
11.02.2016 18:45 -1,6 C -2,0 C 61 % 1006,7 hPa 0,0 mm 4,2 km/h (1 Bft) SO 135 0 min -8,1 C 3,9 km/h (1 Bft)
11.02.2016 18:46 -1,6 C -2,0 C 61 % 1006,7 hPa 0,0 mm 4,2 km/h (1 Bft) SO 135 0 min -8,1 C 3,9 km/h (1 Bft)
11.02.2016 18:47 -1,7 C -2,1 C 62 % 1006,7 hPa 0,0 mm 3,9 km/h (1 Bft) S-SO 157 0 min -8,0 C 3,6 km/h (1 Bft)
11.02.2016 18:48 -1,7 C -2,1 C 62 % 1006,7 hPa 0,0 mm 3,9 km/h (1 Bft) S-SO 157 0 min -8,0 C 3,6 km/h (1 Bft)
11.02.2016 18:49 -1,6 C -2,1 C 62 % 1006,7 hPa 0,0 mm 3,6 km/h (1 Bft) S-SO 157 0 min -7,9 C 4,2 km/h (1 Bft)
11.02.2016 18:50 -1,6 C -2,1 C 62 % 1006,7 hPa 0,0 mm 3,6 km/h (1 Bft) S-SO 157 0 min -7,9 C 4,2 km/h (1 Bft)
11.02.2016 18:51 -1,6 C -2,1 C 62 % 1006,7 hPa 0,0 mm 3,6 km/h (1 Bft) S 180 0 min -7,9 C 5,7 km/h (1 Bft)
11.02.2016 18:52 -1,6 C -2,1 C 62 % 1006,7 hPa 0,0 mm 3,6 km/h (1 Bft) S 180 0 min -7,9 C 5,7 km/h (1 Bft)
11.02.2016 18:53 -1,7 C -2,1 C 62 % 1006,7 hPa 0,0 mm 3,3 km/h (1 Bft) S-SO 157 0 min -8,0 C 4,2 km/h (1 Bft)
11.02.2016 18:54 -1,7 C -2,1 C 62 % 1006,7 hPa 0,0 mm 3,3 km/h (1 Bft) S-SO 157 0 min -8,0 C 4,2 km/h (1 Bft)
11.02.2016 18:55 -1,7 C -2,1 C 62 % 1006,7 hPa 0,0 mm 3,0 km/h (1 Bft) S-SO 157 0 min -8,0 C 0,0 km/h (0 Bft)
11.02.2016 18:56 -1,7 C -2,1 C 62 % 1006,7 hPa 0,0 mm 3,0 km/h (1 Bft) S-SO 157 0 min -8,0 C 0,0 km/h (0 Bft)
11.02.2016 18:57 -1,9 C -2,3 C 62 % 1006,7 hPa 0,0 mm 2,4 km/h (1 Bft) S-SO 157 0 min -8,2 C 0,0 km/h (0 Bft)
11.02.2016 18:58 -1,9 C -2,3 C 62 % 1006,7 hPa 0,0 mm 2,4 km/h (1 Bft) S-SO 157 0 min -8,2 C 0,0 km/h (0 Bft)
11.02.2016 18:59 -1,9 C -2,3 C 62 % 1006,7 hPa 0,0 mm 1,8 km/h (1 Bft) S-SO 157 0 min -8,2 C 0,0 km/h (0 Bft)
11.02.2016 19:00 -1,9 C -2,3 C 62 % 1006,7 hPa 0,0 mm 1,8 km/h (1 Bft) S-SO 157 0 min -8,2 C 0,0 km/h (0 Bft)
11.02.2016 19:01 -1,9 C -2,4 C 63 % 1006,7 hPa 0,0 mm 1,5 km/h (1 Bft) S 180 0 min -8,0 C 0,0 km/h (0 Bft)
11.02.2016 19:02 -1,9 C -2,4 C 63 % 1006,7 hPa 0,0 mm 1,5 km/h (1 Bft) S 180 0 min -8,0 C 0,0 km/h (0 Bft)
11.02.2016 19:03 -1,9 C -2,4 C 63 % 1006,8 hPa 0,0 mm 0,6 km/h (0 Bft) O-SO 112 0 min -8,0 C 0,0 km/h (0 Bft)
11.02.2016 19:04 -1,9 C -2,4 C 63 % 1006,8 hPa 0,0 mm 0,6 km/h (0 Bft) O-SO 112 0 min -8,0 C 0,0 km/h (0 Bft)
11.02.2016 19:05 -1,9 C -2,5 C 63 % 1006,8 hPa 0,0 mm 0,3 km/h (0 Bft) SO 135 0 min -8,0 C 3,0 km/h (1 Bft)
11.02.2016 19:06 -1,9 C -2,5 C 63 % 1006,8 hPa 0,0 mm 0,3 km/h (0 Bft) SO 135 0 min -8,0 C 3,0 km/h (1 Bft)
11.02.2016 19:07 -1,8 C -2,4 C 64 % 1006,8 hPa 0,0 mm 0,3 km/h (0 Bft) SO 135 0 min -7,7 C 0,0 km/h (0 Bft)
11.02.2016 19:08 -1,8 C -2,4 C 64 % 1006,8 hPa 0,0 mm 0,3 km/h (0 Bft) SO 135 0 min -7,7 C 0,0 km/h (0 Bft)
11.02.2016 19:09 -1,8 C -2,5 C 64 % 1006,8 hPa 0,0 mm 0,3 km/h (0 Bft) S-SO 157 0 min -7,7 C 0,0 km/h (0 Bft)
11.02.2016 19:10 -1,8 C -2,5 C 64 % 1006,8 hPa 0,0 mm 0,3 km/h (0 Bft) S-SO 157 0 min -7,7 C 0,0 km/h (0 Bft)
11.02.2016 19:11 -1,8 C -2,5 C 64 % 1006,8 hPa 0,0 mm 0,3 km/h (0 Bft) SO 135 0 min -7,7 C 0,0 km/h (0 Bft)
11.02.2016 19:12 -1,8 C -2,5 C 64 % 1006,8 hPa 0,0 mm 0,3 km/h (0 Bft) SO 135 0 min -7,7 C 0,0 km/h (0 Bft)
11.02.2016 19:13 -1,8 C -2,5 C 64 % 1006,8 hPa 0,0 mm 0,3 km/h (0 Bft) S 180 0 min -7,7 C 0,0 km/h (0 Bft)
11.02.2016 19:14 -1,8 C -2,5 C 64 % 1006,8 hPa 0,0 mm 0,3 km/h (0 Bft) S 180 0 min -7,7 C 0,0 km/h (0 Bft)
11.02.2016 19:15 -2,0 C -2,7 C 64 % 1006,8 hPa 0,0 mm 0,3 km/h (0 Bft) O-SO 112 0 min -7,9 C 0,0 km/h (0 Bft)
11.02.2016 19:16 -2,0 C -2,7 C 64 % 1006,8 hPa 0,0 mm 0,3 km/h (0 Bft) O-SO 112 0 min -7,9 C 0,0 km/h (0 Bft)
11.02.2016 19:17 -2,0 C -2,7 C 65 % 1006,8 hPa 0,0 mm 0,3 km/h (0 Bft) O-SO 112 0 min -7,7 C 0,0 km/h (0 Bft)
11.02.2016 19:18 -2,0 C -2,7 C 65 % 1006,8 hPa 0,0 mm 0,3 km/h (0 Bft) O-SO 112 0 min -7,7 C 0,0 km/h (0 Bft)
11.02.2016 19:19 -2,1 C -2,8 C 65 % 1006,8 hPa 0,0 mm 0,0 km/h (0 Bft) O-SO 112 0 min -7,8 C 0,0 km/h (0 Bft)
11.02.2016 19:20 -2,1 C -2,8 C 65 % 1006,8 hPa 0,0 mm 0,0 km/h (0 Bft) O-SO 112 0 min -7,8 C 0,0 km/h (0 Bft)
11.02.2016 19:21 -2,2 C -2,9 C 65 % 1006,8 hPa 0,0 mm 0,0 km/h (0 Bft) SO 135 0 min -7,9 C 0,0 km/h (0 Bft)
11.02.2016 19:22 -2,2 C -2,9 C 65 % 1006,8 hPa 0,0 mm 0,0 km/h (0 Bft) SO 135 0 min -7,9 C 0,0 km/h (0 Bft)
11.02.2016 19:23 -2,1 C -2,9 C 66 % 1006,4 hPa 0,0 mm 0,0 km/h (0 Bft) SO 135 0 min -7,6 C 0,0 km/h (0 Bft)
11.02.2016 19:24 -2,1 C -2,9 C 66 % 1006,4 hPa 0,0 mm 0,0 km/h (0 Bft) SO 135 0 min -7,6 C 0,0 km/h (0 Bft)
11.02.2016 19:25 -2,1 C -2,9 C 66 % 1006,4 hPa 0,0 mm 0,0 km/h (0 Bft) O-SO 112 0 min -7,6 C 0,0 km/h (0 Bft)
11.02.2016 19:26 -2,1 C -2,9 C 66 % 1006,4 hPa 0,0 mm 0,0 km/h (0 Bft) O-SO 112 0 min -7,6 C 0,0 km/h (0 Bft)
11.02.2016 19:27 -2,1 C -2,9 C 66 % 1006,4 hPa 0,0 mm 0,0 km/h (0 Bft) O-SO 112 0 min -7,6 C 0,0 km/h (0 Bft)
11.02.2016 19:28 -2,1 C -2,9 C 66 % 1006,4 hPa 0,0 mm 0,0 km/h (0 Bft) O-SO 112 0 min -7,6 C 0,0 km/h (0 Bft)
11.02.2016 19:29 -2,2 C -3,0 C 66 % 1006,4 hPa 0,0 mm 0,0 km/h (0 Bft) O-SO 112 0 min -7,7 C 0,0 km/h (0 Bft)
11.02.2016 19:30 -2,2 C -3,0 C 66 % 1006,4 hPa 0,0 mm 0,0 km/h (0 Bft) O-SO 112 0 min -7,7 C 0,0 km/h (0 Bft)
11.02.2016 19:31 -2,2 C -3,0 C 66 % 1006,4 hPa 0,0 mm 0,0 km/h (0 Bft) O-SO 112 0 min -7,7 C 0,0 km/h (0 Bft)
11.02.2016 19:32 -2,2 C -3,0 C 66 % 1006,4 hPa 0,0 mm 0,0 km/h (0 Bft) O-SO 112 0 min -7,7 C 0,0 km/h (0 Bft)
11.02.2016 19:33 -2,2 C -3,1 C 66 % 1006,4 hPa 0,0 mm 0,0 km/h (0 Bft) O-SO 112 0 min -7,7 C 0,0 km/h (0 Bft)
11.02.2016 19:34 -2,2 C -3,1 C 66 % 1006,4 hPa 0,0 mm 0,0 km/h (0 Bft) O-SO 112 0 min -7,7 C 0,0 km/h (0 Bft)
11.02.2016 19:35 -2,3 C -3,2 C 66 % 1006,4 hPa 0,0 mm 0,0 km/h (0 Bft) O 90 0 min -7,8 C 0,0 km/h (0 Bft)
11.02.2016 19:36 -2,3 C -3,2 C 66 % 1006,4 hPa 0,0 mm 0,0 km/h (0 Bft) O 90 0 min -7,8 C 0,0 km/h (0 Bft)
11.02.2016 19:37 -2,5 C -3,3 C 65 % 1006,4 hPa 0,0 mm 0,0 km/h (0 Bft) O 90 0 min -8,2 C 0,0 km/h (0 Bft)
11.02.2016 19:38 -2,5 C -3,3 C 65 % 1006,4 hPa 0,0 mm 0,0 km/h (0 Bft) O 90 0 min -8,2 C 0,0 km/h (0 Bft)
11.02.2016 19:39 -2,9 C -3,6 C 65 % 1006,4 hPa 0,0 mm 0,0 km/h (0 Bft) O 90 0 min -8,5 C 0,0 km/h (0 Bft)
11.02.2016 19:40 -2,9 C -3,6 C 65 % 1006,4 hPa 0,0 mm 0,0 km/h (0 Bft) O 90 0 min -8,5 C 0,0 km/h (0 Bft)
11.02.2016 19:41 -3,2 C -3,9 C 64 % 1006,4 hPa 0,0 mm 0,0 km/h (0 Bft) O 90 0 min -9,0 C 0,0 km/h (0 Bft)
11.02.2016 19:42 -3,2 C -3,9 C 64 % 1006,4 hPa 0,0 mm 0,0 km/h (0 Bft) O 90 0 min -9,0 C 0,0 km/h (0 Bft)
11.02.2016 19:43 -3,6 C -4,2 C 63 % 1006,4 hPa 0,0 mm 0,0 km/h (0 Bft) O 90 0 min -9,6 C 0,0 km/h (0 Bft)
11.02.2016 19:44 -3,6 C -4,2 C 63 % 1006,4 hPa 0,0 mm 0,0 km/h (0 Bft) O 90 0 min -9,6 C 0,0 km/h (0 Bft)
11.02.2016 19:45 -3,7 C -4,3 C 63 % 1006,4 hPa 0,0 mm 0,0 km/h (0 Bft) O-NO 67 0 min -9,7 C 0,0 km/h (0 Bft)
11.02.2016 19:46 -3,7 C -4,3 C 63 % 1006,4 hPa 0,0 mm 0,0 km/h (0 Bft) O-NO 67 0 min -9,7 C 0,0 km/h (0 Bft)
11.02.2016 19:47 -3,8 C -4,4 C 63 % 1006,4 hPa 0,0 mm 0,0 km/h (0 Bft) O-NO 67 0 min -9,8 C 0,0 km/h (0 Bft)
11.02.2016 19:48 -3,8 C -4,4 C 63 % 1006,4 hPa 0,0 mm 0,0 km/h (0 Bft) O-NO 67 0 min -9,8 C 0,0 km/h (0 Bft)
11.02.2016 19:49 -3,9 C -4,4 C 63 % 1006,4 hPa 0,0 mm 0,0 km/h (0 Bft) O-NO 67 0 min -9,9 C 0,0 km/h (0 Bft)
11.02.2016 19:50 -3,9 C -4,4 C 63 % 1006,4 hPa 0,0 mm 0,0 km/h (0 Bft) O-NO 67 0 min -9,9 C 0,0 km/h (0 Bft)
11.02.2016 19:51 -3,9 C -4,5 C 64 % 1006,4 hPa 0,0 mm 0,0 km/h (0 Bft) O-NO 67 0 min -9,7 C 0,0 km/h (0 Bft)
11.02.2016 19:52 -3,9 C -4,5 C 64 % 1006,4 hPa 0,0 mm 0,0 km/h (0 Bft) O-NO 67 0 min -9,7 C 0,0 km/h (0 Bft)
11.02.2016 19:53 -3,9 C -4,5 C 64 % 1006,4 hPa 0,0 mm 0,0 km/h (0 Bft) O-NO 67 0 min -9,7 C 0,0 km/h (0 Bft)
11.02.2016 19:54 -3,9 C -4,5 C 64 % 1006,4 hPa 0,0 mm 0,0 km/h (0 Bft) O-NO 67 0 min -9,7 C 0,0 km/h (0 Bft)
11.02.2016 19:55 -3,9 C -4,6 C 64 % 1006,4 hPa 0,0 mm 0,0 km/h (0 Bft) O-NO 67 0 min -9,7 C 0,0 km/h (0 Bft)
11.02.2016 19:56 -3,9 C -4,6 C 64 % 1006,4 hPa 0,0 mm 0,0 km/h (0 Bft) O-NO 67 0 min -9,7 C 0,0 km/h (0 Bft)
11.02.2016 19:57 -3,9 C -4,6 C 64 % 1006,4 hPa 0,0 mm 0,0 km/h (0 Bft) O-NO 67 0 min -9,7 C 0,0 km/h (0 Bft)
11.02.2016 19:58 -3,9 C -4,6 C 64 % 1006,4 hPa 0,0 mm 0,0 km/h (0 Bft) O-NO 67 0 min -9,7 C 0,0 km/h (0 Bft)
11.02.2016 19:59 -3,9 C -4,6 C 64 % 1006,4 hPa 0,0 mm 0,0 km/h (0 Bft) O-NO 67 0 min -9,7 C 0,0 km/h (0 Bft)
11.02.2016 20:00 -3,9 C -4,6 C 64 % 1006,4 hPa 0,0 mm 0,0 km/h (0 Bft) O-NO 67 0 min -9,7 C 0,0 km/h (0 Bft)
11.02.2016 20:01 -4,0 C -4,7 C 65 % 1006,4 hPa 0,0 mm 0,0 km/h (0 Bft) O-NO 67 0 min -9,6 C 0,0 km/h (0 Bft)
11.02.2016 20:02 -4,0 C -4,7 C 65 % 1006,4 hPa 0,0 mm 0,0 km/h (0 Bft) O-NO 67 0 min -9,6 C 0,0 km/h (0 Bft)
11.02.2016 20:03 -4,0 C -4,7 C 65 % 1006,2 hPa 0,0 mm 0,0 km/h (0 Bft) O-NO 67 0 min -9,6 C 0,0 km/h (0 Bft)
11.02.2016 20:04 -4,0 C -4,7 C 65 % 1006,2 hPa 0,0 mm 0,0 km/h (0 Bft) O-NO 67 0 min -9,6 C 0,0 km/h (0 Bft)
11.02.2016 20:05 -3,8 C -4,6 C 66 % 1006,2 hPa 0,0 mm 0,0 km/h (0 Bft) O-NO 67 0 min -9,2 C 0,0 km/h (0 Bft)
11.02.2016 20:06 -3,8 C -4,6 C 66 % 1006,2 hPa 0,0 mm 0,0 km/h (0 Bft) O-NO 67 0 min -9,2 C 0,0 km/h (0 Bft)
11.02.2016 20:07 -4,0 C -4,7 C 66 % 1006,2 hPa 0,0 mm 0,0 km/h (0 Bft) NO 45 0 min -9,4 C 0,0 km/h (0 Bft)
11.02.2016 20:08 -4,0 C -4,7 C 66 % 1006,2 hPa 0,0 mm 0,0 km/h (0 Bft) NO 45 0 min -9,4 C 0,0 km/h (0 Bft)
11.02.2016 20:09 -4,2 C -4,8 C 65 % 1006,2 hPa 0,0 mm 0,0 km/h (0 Bft) NO 45 0 min -9,8 C 0,0 km/h (0 Bft)
11.02.2016 20:10 -4,2 C -4,8 C 65 % 1006,2 hPa 0,0 mm 0,0 km/h (0 Bft) NO 45 0 min -9,8 C 0,0 km/h (0 Bft)
11.02.2016 20:11 -4,3 C -4,9 C 65 % 1006,2 hPa 0,0 mm 0,0 km/h (0 Bft) NO 45 0 min -9,9 C 0,0 km/h (0 Bft)
11.02.2016 20:12 -4,3 C -4,9 C 65 % 1006,2 hPa 0,0 mm 0,0 km/h (0 Bft) NO 45 0 min -9,9 C 0,0 km/h (0 Bft)
11.02.2016 20:13 -4,2 C -4,9 C 66 % 1006,2 hPa 0,0 mm 0,0 km/h (0 Bft) NO 45 0 min -9,6 C 0,0 km/h (0 Bft)
11.02.2016 20:14 -4,2 C -4,9 C 66 % 1006,2 hPa 0,0 mm 0,0 km/h (0 Bft) NO 45 0 min -9,6 C 0,0 km/h (0 Bft)
11.02.2016 20:15 -4,2 C -4,9 C 66 % 1006,2 hPa 0,0 mm 0,0 km/h (0 Bft) N-NO 22 0 min -9,6 C 0,0 km/h (0 Bft)
11.02.2016 20:16 -4,2 C -4,9 C 66 % 1006,2 hPa 0,0 mm 0,0 km/h (0 Bft) N-NO 22 0 min -9,6 C 0,0 km/h (0 Bft)
11.02.2016 20:17 -4,0 C -4,8 C 66 % 1006,2 hPa 0,0 mm 0,0 km/h (0 Bft) NO 45 0 min -9,4 C 0,0 km/h (0 Bft)
11.02.2016 20:18 -4,0 C -4,8 C 66 % 1006,2 hPa 0,0 mm 0,0 km/h (0 Bft) NO 45 0 min -9,4 C 0,0 km/h (0 Bft)
11.02.2016 20:19 -3,9 C -4,7 C 67 % 1006,2 hPa 0,0 mm 0,0 km/h (0 Bft) NO 45 0 min -9,1 C 0,0 km/h (0 Bft)
11.02.2016 20:20 -3,9 C -4,7 C 67 % 1006,2 hPa 0,0 mm 0,0 km/h (0 Bft) NO 45 0 min -9,1 C 0,0 km/h (0 Bft)
11.02.2016 20:21 -4,0 C -4,8 C 67 % 1006,2 hPa 0,0 mm 0,0 km/h (0 Bft) NO 45 0 min -9,2 C 0,0 km/h (0 Bft)
11.02.2016 20:22 -4,0 C -4,8 C 67 % 1006,2 hPa 0,0 mm 0,0 km/h (0 Bft) NO 45 0 min -9,2 C 0,0 km/h (0 Bft)
11.02.2016 20:23 -4,0 C -4,8 C 67 % 1006,0 hPa 0,0 mm 0,0 km/h (0 Bft) NO 45 0 min -9,2 C 0,0 km/h (0 Bft)
11.02.2016 20:24 -4,0 C -4,8 C 67 % 1006,0 hPa 0,0 mm 0,0 km/h (0 Bft) NO 45 0 min -9,2 C 0,0 km/h (0 Bft)
11.02.2016 20:25 -3,8 C -4,6 C 68 % 1006,0 hPa 0,0 mm 0,0 km/h (0 Bft) NO 45 0 min -8,8 C 0,0 km/h (0 Bft)
11.02.2016 20:26 -3,8 C -4,6 C 68 % 1006,0 hPa 0,0 mm 0,0 km/h (0 Bft) NO 45 0 min -8,8 C 0,0 km/h (0 Bft)
11.02.2016 20:27 -3,9 C -4,7 C 68 % 1006,0 hPa 0,0 mm 0,0 km/h (0 Bft) NO 45 0 min -8,9 C 0,0 km/h (0 Bft)
11.02.2016 20:28 -3,9 C -4,7 C 68 % 1006,0 hPa 0,0 mm 0,0 km/h (0 Bft) NO 45 0 min -8,9 C 0,0 km/h (0 Bft)
11.02.2016 20:29 -4,0 C -4,8 C 68 % 1006,0 hPa 0,0 mm 0,0 km/h (0 Bft) NO 45 0 min -9,0 C 0,0 km/h (0 Bft)
11.02.2016 20:30 -4,0 C -4,8 C 68 % 1006,0 hPa 0,0 mm 0,0 km/h (0 Bft) NO 45 0 min -9,0 C 0,0 km/h (0 Bft)
11.02.2016 20:31 -4,3 C -5,0 C 68 % 1006,0 hPa 0,0 mm 0,0 km/h (0 Bft) NO 45 0 min -9,3 C 0,0 km/h (0 Bft)
11.02.2016 20:32 -4,3 C -5,0 C 68 % 1006,0 hPa 0,0 mm 0,0 km/h (0 Bft) NO 45 0 min -9,3 C 0,0 km/h (0 Bft)
11.02.2016 20:33 -4,5 C -5,2 C 67 % 1006,0 hPa 0,0 mm 0,0 km/h (0 Bft) NO 45 0 min -9,7 C 0,0 km/h (0 Bft)
11.02.2016 20:34 -4,5 C -5,2 C 67 % 1006,0 hPa 0,0 mm 0,0 km/h (0 Bft) NO 45 0 min -9,7 C 0,0 km/h (0 Bft)
11.02.2016 20:35 -4,3 C -5,0 C 68 % 1006,0 hPa 0,0 mm 0,0 km/h (0 Bft) NO 45 0 min -9,3 C 0,0 km/h (0 Bft)
11.02.2016 20:36 -4,3 C -5,0 C 68 % 1006,0 hPa 0,0 mm 0,0 km/h (0 Bft) NO 45 0 min -9,3 C 0,0 km/h (0 Bft)
11.02.2016 20:37 -4,2 C -5,0 C 68 % 1006,0 hPa 0,0 mm 0,0 km/h (0 Bft) NO 45 0 min -9,2 C 0,0 km/h (0 Bft)
11.02.2016 20:38 -4,2 C -5,0 C 68 % 1006,0 hPa 0,0 mm 0,0 km/h (0 Bft) NO 45 0 min -9,2 C 0,0 km/h (0 Bft)
11.02.2016 20:40 -4,2 C -5,0 C 68 % 1006,0 hPa 0,0 mm 0,0 km/h (0 Bft) NO 45 0 min -9,2 C 0,0 km/h (0 Bft)
11.02.2016 20:41 -4,3 C -5,1 C 68 % 1006,0 hPa 0,0 mm 0,0 km/h (0 Bft) NO 45 0 min -9,3 C 0,0 km/h (0 Bft)
11.02.2016 20:42 -4,3 C -5,1 C 68 % 1006,0 hPa 0,0 mm 0,0 km/h (0 Bft) NO 45 0 min -9,3 C 0,0 km/h (0 Bft)
11.02.2016 20:43 -4,4 C -5,2 C 68 % 1005,9 hPa 0,0 mm 0,0 km/h (0 Bft) NO 45 0 min -9,4 C 0,0 km/h (0 Bft)
11.02.2016 20:44 -4,4 C -5,2 C 68 % 1005,9 hPa 0,0 mm 0,0 km/h (0 Bft) NO 45 0 min -9,4 C 0,0 km/h (0 Bft)
11.02.2016 20:45 -4,5 C -5,3 C 68 % 1005,9 hPa 0,0 mm 0,0 km/h (0 Bft) NO 45 0 min -9,5 C 0,0 km/h (0 Bft)
11.02.2016 20:46 -4,5 C -5,3 C 68 % 1005,9 hPa 0,0 mm 0,0 km/h (0 Bft) NO 45 0 min -9,5 C 0,0 km/h (0 Bft)
11.02.2016 20:47 -4,5 C -5,3 C 68 % 1005,9 hPa 0,0 mm 0,0 km/h (0 Bft) NO 45 0 min -9,5 C 0,0 km/h (0 Bft)
11.02.2016 20:48 -4,5 C -5,3 C 68 % 1005,9 hPa 0,0 mm 0,0 km/h (0 Bft) NO 45 0 min -9,5 C 0,0 km/h (0 Bft)
11.02.2016 20:49 -4,7 C -5,4 C 68 % 1005,9 hPa 0,0 mm 0,0 km/h (0 Bft) NO 45 0 min -9,7 C 0,0 km/h (0 Bft)
11.02.2016 20:50 -4,7 C -5,4 C 68 % 1005,9 hPa 0,0 mm 0,0 km/h (0 Bft) NO 45 0 min -9,7 C 0,0 km/h (0 Bft)
11.02.2016 20:51 -4,8 C -5,4 C 68 % 1005,9 hPa 0,0 mm 0,0 km/h (0 Bft) NO 45 0 min -9,8 C 0,0 km/h (0 Bft)
11.02.2016 20:52 -4,8 C -5,4 C 68 % 1005,9 hPa 0,0 mm 0,0 km/h (0 Bft) NO 45 0 min -9,8 C 0,0 km/h (0 Bft)
11.02.2016 20:53 -4,7 C -5,4 C 68 % 1005,9 hPa 0,0 mm 0,0 km/h (0 Bft) NO 45 0 min -9,7 C 0,0 km/h (0 Bft)
11.02.2016 20:54 -4,7 C -5,4 C 68 % 1005,9 hPa 0,0 mm 0,0 km/h (0 Bft) NO 45 0 min -9,7 C 0,0 km/h (0 Bft)
11.02.2016 20:55 -4,7 C -5,4 C 68 % 1005,9 hPa 0,0 mm 0,0 km/h (0 Bft) NO 45 0 min -9,7 C 0,0 km/h (0 Bft)
11.02.2016 20:56 -4,7 C -5,4 C 68 % 1005,9 hPa 0,0 mm 0,0 km/h (0 Bft) NO 45 0 min -9,7 C 0,0 km/h (0 Bft)
11.02.2016 20:57 -4,7 C -5,4 C 68 % 1005,9 hPa 0,0 mm 0,0 km/h (0 Bft) NO 45 0 min -9,7 C 0,0 km/h (0 Bft)
11.02.2016 20:58 -4,7 C -5,4 C 68 % 1005,9 hPa 0,0 mm 0,0 km/h (0 Bft) NO 45 0 min -9,7 C 0,0 km/h (0 Bft)
11.02.2016 20:59 -4,8 C -5,4 C 69 % 1005,9 hPa 0,0 mm 0,0 km/h (0 Bft) NO 45 0 min -9,6 C 0,0 km/h (0 Bft)
11.02.2016 21:00 -4,8 C -5,4 C 69 % 1005,9 hPa 0,0 mm 0,0 km/h (0 Bft) NO 45 0 min -9,6 C 0,0 km/h (0 Bft)
11.02.2016 21:01 -4,8 C -5,4 C 69 % 1005,9 hPa 0,0 mm 0,0 km/h (0 Bft) NO 45 0 min -9,6 C 0,0 km/h (0 Bft)
11.02.2016 21:02 -4,8 C -5,4 C 69 % 1005,9 hPa 0,0 mm 0,0 km/h (0 Bft) NO 45 0 min -9,6 C 0,0 km/h (0 Bft)
11.02.2016 21:03 -4,8 C -5,4 C 69 % 1005,9 hPa 0,0 mm 0,0 km/h (0 Bft) NO 45 0 min -9,6 C 0,0 km/h (0 Bft)
11.02.2016 21:04 -4,8 C -5,4 C 69 % 1005,9 hPa 0,0 mm 0,0 km/h (0 Bft) NO 45 0 min -9,6 C 0,0 km/h (0 Bft)
11.02.2016 21:05 -4,9 C -5,5 C 69 % 1005,9 hPa 0,0 mm 0,0 km/h (0 Bft) NO 45 0 min -9,7 C 0,0 km/h (0 Bft)
11.02.2016 21:06 -4,9 C -5,5 C 69 % 1005,9 hPa 0,0 mm 0,0 km/h (0 Bft) NO 45 0 min -9,7 C 0,0 km/h (0 Bft)
11.02.2016 21:07 -4,9 C -5,5 C 69 % 1005,9 hPa 0,0 mm 0,0 km/h (0 Bft) NO 45 0 min -9,7 C 0,0 km/h (0 Bft)
11.02.2016 21:08 -4,9 C -5,5 C 69 % 1005,9 hPa 0,0 mm 0,0 km/h (0 Bft) NO 45 0 min -9,7 C 0,0 km/h (0 Bft)
11.02.2016 21:09 -4,9 C -5,5 C 69 % 1005,9 hPa 0,0 mm 0,0 km/h (0 Bft) N-NO 22 0 min -9,7 C 0,0 km/h (0 Bft)
11.02.2016 21:10 -4,9 C -5,5 C 69 % 1007,1 hPa 0,0 mm 0,0 km/h (0 Bft) N-NO 22 0 min -9,7 C 0,0 km/h (0 Bft)
11.02.2016 21:11 -5,0 C -5,6 C 69 % 1007,1 hPa 0,0 mm 0,0 km/h (0 Bft) N-NO 22 0 min -9,8 C 0,0 km/h (0 Bft)
11.02.2016 21:12 -5,0 C -5,6 C 69 % 1007,1 hPa 0,0 mm 0,0 km/h (0 Bft) N-NO 22 0 min -9,8 C 0,0 km/h (0 Bft)
11.02.2016 21:13 -5,1 C -5,7 C 69 % 1007,1 hPa 0,0 mm 0,0 km/h (0 Bft) N-NO 22 0 min -9,9 C 0,0 km/h (0 Bft)
11.02.2016 21:14 -5,1 C -5,7 C 69 % 1007,1 hPa 0,0 mm 0,0 km/h (0 Bft) N-NO 22 0 min -9,9 C 0,0 km/h (0 Bft)
11.02.2016 21:15 -5,1 C -5,7 C 69 % 1007,1 hPa 0,0 mm 0,0 km/h (0 Bft) N-NO 22 0 min -9,9 C 0,0 km/h (0 Bft)
11.02.2016 21:16 -5,1 C -5,7 C 69 % 1007,1 hPa 0,0 mm 0,0 km/h (0 Bft) N-NO 22 0 min -9,9 C 0,0 km/h (0 Bft)
11.02.2016 21:21 -4,9 C -5,5 C 70 % 1007,1 hPa 0,0 mm 0,0 km/h (0 Bft) O-NO 67 0 min -9,5 C 0,0 km/h (0 Bft)
11.02.2016 21:23 -4,8 C -5,4 C 71 % 1006,9 hPa 0,0 mm 0,0 km/h (0 Bft) O-NO 67 0 min -9,2 C 0,0 km/h (0 Bft)
11.02.2016 21:24 -4,8 C -5,4 C 71 % 1006,9 hPa 0,0 mm 0,0 km/h (0 Bft) O-NO 67 0 min -9,2 C 0,0 km/h (0 Bft)
11.02.2016 21:25 -4,8 C -5,4 C 71 % 1006,9 hPa 0,0 mm 0,0 km/h (0 Bft) O-NO 67 0 min -9,2 C 0,0 km/h (0 Bft)
11.02.2016 21:26 -4,8 C -5,4 C 71 % 1006,9 hPa 0,0 mm 0,0 km/h (0 Bft) O-NO 67 0 min -9,2 C 0,0 km/h (0 Bft)
11.02.2016 21:27 -4,9 C -5,5 C 71 % 1006,9 hPa 0,0 mm 0,0 km/h (0 Bft) O-NO 67 0 min -9,3 C 0,0 km/h (0 Bft)
11.02.2016 21:28 -4,9 C -5,5 C 71 % 1006,9 hPa 0,0 mm 0,0 km/h (0 Bft) O-NO 67 0 min -9,3 C 0,0 km/h (0 Bft)
11.02.2016 21:29 -4,9 C -5,5 C 71 % 1006,9 hPa 0,0 mm 0,0 km/h (0 Bft) O-NO 67 0 min -9,3 C 0,0 km/h (0 Bft)
11.02.2016 21:30 -5,1 C -5,6 C 71 % 1006,9 hPa 0,0 mm 0,0 km/h (0 Bft) NO 45 0 min -9,5 C 0,0 km/h (0 Bft)
11.02.2016 21:31 -5,1 C -5,6 C 71 % 1006,9 hPa 0,0 mm 0,0 km/h (0 Bft) NO 45 0 min -9,5 C 0,0 km/h (0 Bft)
11.02.2016 21:32 -5,2 C -5,7 C 71 % 1006,9 hPa 0,0 mm 0,0 km/h (0 Bft) NO 45 0 min -9,6 C 0,0 km/h (0 Bft)
11.02.2016 21:33 -5,2 C -5,7 C 71 % 1006,9 hPa 0,0 mm 0,0 km/h (0 Bft) NO 45 0 min -9,6 C 0,0 km/h (0 Bft)
11.02.2016 21:34 -5,2 C -5,8 C 71 % 1006,9 hPa 0,0 mm 0,0 km/h (0 Bft) N-NO 22 0 min -9,6 C 0,0 km/h (0 Bft)
11.02.2016 21:35 -5,2 C -5,8 C 71 % 1006,9 hPa 0,0 mm 0,0 km/h (0 Bft) N-NO 22 0 min -9,6 C 0,0 km/h (0 Bft)
11.02.2016 21:36 -5,2 C -5,8 C 71 % 1006,9 hPa 0,0 mm 0,0 km/h (0 Bft) N-NW 337 0 min -9,6 C 0,0 km/h (0 Bft)
11.02.2016 21:37 -5,2 C -5,8 C 71 % 1006,9 hPa 0,0 mm 0,0 km/h (0 Bft) N-NW 337 0 min -9,6 C 0,0 km/h (0 Bft)
11.02.2016 21:38 -5,2 C -5,8 C 71 % 1006,9 hPa 0,0 mm 0,0 km/h (0 Bft) N-NW 337 0 min -9,6 C 0,0 km/h (0 Bft)
11.02.2016 21:39 -5,2 C -5,8 C 71 % 1006,9 hPa 0,0 mm 0,0 km/h (0 Bft) N-NW 337 0 min -9,6 C 0,0 km/h (0 Bft)
11.02.2016 21:40 -5,1 C -5,7 C 71 % 1006,9 hPa 0,0 mm 0,0 km/h (0 Bft) N-NO 22 0 min -9,5 C 0,0 km/h (0 Bft)
11.02.2016 21:41 -5,1 C -5,7 C 71 % 1006,9 hPa 0,0 mm 0,0 km/h (0 Bft) N-NO 22 0 min -9,5 C 0,0 km/h (0 Bft)
11.02.2016 21:42 -5,1 C -5,7 C 71 % 1006,9 hPa 0,0 mm 0,0 km/h (0 Bft) NO 45 0 min -9,5 C 0,0 km/h (0 Bft)
11.02.2016 21:43 -5,1 C -5,7 C 71 % 1006,9 hPa 0,0 mm 0,0 km/h (0 Bft) NO 45 0 min -9,5 C 0,0 km/h (0 Bft)
11.02.2016 21:45 -4,9 C -5,6 C 72 % 1006,8 hPa 0,0 mm 0,0 km/h (0 Bft) NO 45 0 min -9,1 C 0,0 km/h (0 Bft)
11.02.2016 21:46 -4,9 C -5,6 C 72 % 1006,8 hPa 0,0 mm 0,0 km/h (0 Bft) NO 45 0 min -9,1 C 0,0 km/h (0 Bft)
11.02.2016 21:47 -4,9 C -5,6 C 72 % 1006,8 hPa 0,0 mm 0,0 km/h (0 Bft) SO 135 0 min -9,1 C 0,0 km/h (0 Bft)
11.02.2016 21:48 -4,9 C -5,6 C 72 % 1006,8 hPa 0,0 mm 0,0 km/h (0 Bft) SO 135 0 min -9,1 C 0,0 km/h (0 Bft)
11.02.2016 21:49 -4,8 C -5,5 C 72 % 1006,8 hPa 0,0 mm 0,0 km/h (0 Bft) SO 135 0 min -9,1 C 0,0 km/h (0 Bft)
11.02.2016 21:50 -4,8 C -5,5 C 72 % 1006,8 hPa 0,0 mm 0,0 km/h (0 Bft) SO 135 0 min -9,1 C 0,0 km/h (0 Bft)
11.02.2016 21:51 -5,0 C -5,6 C 72 % 1006,8 hPa 0,0 mm 0,0 km/h (0 Bft) NO 45 0 min -9,2 C 0,0 km/h (0 Bft)
11.02.2016 21:52 -5,0 C -5,6 C 72 % 1006,8 hPa 0,0 mm 0,0 km/h (0 Bft) NO 45 0 min -9,2 C 0,0 km/h (0 Bft)
11.02.2016 21:53 -5,1 C -5,7 C 72 % 1006,8 hPa 0,0 mm 0,0 km/h (0 Bft) N-NW 337 0 min -9,3 C 0,0 km/h (0 Bft)
11.02.2016 21:54 -5,1 C -5,7 C 72 % 1006,8 hPa 0,0 mm 0,0 km/h (0 Bft) N-NW 337 0 min -9,3 C 0,0 km/h (0 Bft)
11.02.2016 21:55 -5,1 C -5,7 C 72 % 1006,8 hPa 0,0 mm 0,0 km/h (0 Bft) N-NW 337 0 min -9,3 C 0,0 km/h (0 Bft)
11.02.2016 21:56 -5,1 C -5,7 C 72 % 1006,8 hPa 0,0 mm 0,0 km/h (0 Bft) N-NW 337 0 min -9,3 C 0,0 km/h (0 Bft)
11.02.2016 21:57 -5,1 C -5,7 C 72 % 1006,8 hPa 0,0 mm 0,0 km/h (0 Bft) N-NW 337 0 min -9,3 C 0,0 km/h (0 Bft)
11.02.2016 21:58 -5,1 C -5,7 C 72 % 1006,8 hPa 0,0 mm 0,0 km/h (0 Bft) N-NW 337 0 min -9,3 C 0,0 km/h (0 Bft)
11.02.2016 21:59 -5,0 C -5,6 C 72 % 1006,8 hPa 0,0 mm 0,0 km/h (0 Bft) N-NW 337 0 min -9,2 C 0,0 km/h (0 Bft)
11.02.2016 22:00 -5,0 C -5,6 C 72 % 1006,8 hPa 0,0 mm 0,0 km/h (0 Bft) N-NW 337 0 min -9,2 C 0,0 km/h (0 Bft)
11.02.2016 22:01 -5,1 C -5,7 C 72 % 1006,8 hPa 0,0 mm 0,0 km/h (0 Bft) SO 135 0 min -9,3 C 0,0 km/h (0 Bft)
11.02.2016 22:02 -5,1 C -5,7 C 72 % 1006,8 hPa 0,0 mm 0,0 km/h (0 Bft) SO 135 0 min -9,3 C 0,0 km/h (0 Bft)
11.02.2016 22:03 -5,0 C -5,7 C 72 % 1006,8 hPa 0,0 mm 0,0 km/h (0 Bft) SO 135 0 min -9,2 C 0,0 km/h (0 Bft)
11.02.2016 22:04 -5,0 C -5,7 C 72 % 1006,8 hPa 0,0 mm 0,0 km/h (0 Bft) SO 135 0 min -9,2 C 0,0 km/h (0 Bft)
11.02.2016 22:05 -4,9 C -5,6 C 73 % 1006,8 hPa 0,0 mm 0,0 km/h (0 Bft) S-SO 157 0 min -9,0 C 0,0 km/h (0 Bft)
11.02.2016 22:06 -4,9 C -5,6 C 73 % 1006,8 hPa 0,0 mm 0,0 km/h (0 Bft) S-SO 157 0 min -9,0 C 0,0 km/h (0 Bft)
11.02.2016 22:07 -4,8 C -5,5 C 73 % 1006,8 hPa 0,0 mm 0,0 km/h (0 Bft) S-SO 157 0 min -8,9 C 0,0 km/h (0 Bft)
11.02.2016 22:08 -4,8 C -5,5 C 73 % 1006,8 hPa 0,0 mm 0,0 km/h (0 Bft) S-SO 157 0 min -8,9 C 0,0 km/h (0 Bft)
11.02.2016 22:09 -4,5 C -5,3 C 74 % 1006,8 hPa 0,0 mm 0,0 km/h (0 Bft) S-SO 157 0 min -8,4 C 0,0 km/h (0 Bft)
11.02.2016 22:10 -4,5 C -5,3 C 74 % 1006,8 hPa 0,0 mm 0,0 km/h (0 Bft) S-SO 157 0 min -8,4 C 0,0 km/h (0 Bft)
11.02.2016 22:11 -4,2 C -5,0 C 75 % 1006,8 hPa 0,0 mm 0,0 km/h (0 Bft) SW 225 0 min -8,0 C 0,0 km/h (0 Bft)
11.02.2016 22:12 -4,2 C -5,0 C 75 % 1006,8 hPa 0,0 mm 0,0 km/h (0 Bft) SW 225 0 min -8,0 C 0,0 km/h (0 Bft)
11.02.2016 22:13 -4,1 C -4,9 C 75 % 1006,8 hPa 0,0 mm 0,0 km/h (0 Bft) S 180 0 min -7,9 C 0,0 km/h (0 Bft)
11.02.2016 22:14 -4,1 C -4,9 C 75 % 1006,8 hPa 0,0 mm 0,0 km/h (0 Bft) S 180 0 min -7,9 C 0,0 km/h (0 Bft)
11.02.2016 22:15 -4,1 C -4,9 C 75 % 1006,8 hPa 0,0 mm 0,0 km/h (0 Bft) SO 135 0 min -7,9 C 0,0 km/h (0 Bft)
11.02.2016 22:16 -4,1 C -4,9 C 75 % 1006,8 hPa 0,0 mm 0,0 km/h (0 Bft) SO 135 0 min -7,9 C 0,0 km/h (0 Bft)
11.02.2016 22:17 -4,2 C -4,9 C 75 % 1006,8 hPa 0,0 mm 0,0 km/h (0 Bft) O-NO 67 0 min -8,0 C 0,0 km/h (0 Bft)
11.02.2016 22:18 -4,2 C -4,9 C 75 % 1006,8 hPa 0,0 mm 0,0 km/h (0 Bft) O-NO 67 0 min -8,0 C 0,0 km/h (0 Bft)
11.02.2016 22:19 -4,4 C -5,1 C 74 % 1006,8 hPa 0,0 mm 0,0 km/h (0 Bft) O-NO 67 0 min -8,3 C 0,0 km/h (0 Bft)
11.02.2016 22:20 -4,4 C -5,1 C 74 % 1006,8 hPa 0,0 mm 0,0 km/h (0 Bft) O-NO 67 0 min -8,3 C 0,0 km/h (0 Bft)
11.02.2016 22:21 -4,4 C -5,0 C 74 % 1006,8 hPa 0,0 mm 0,0 km/h (0 Bft) N-NW 337 0 min -8,3 C 0,0 km/h (0 Bft)
11.02.2016 22:22 -4,4 C -5,0 C 74 % 1006,8 hPa 0,0 mm 0,0 km/h (0 Bft) N-NW 337 0 min -8,3 C 0,0 km/h (0 Bft)
11.02.2016 22:23 -4,5 C -5,1 C 74 % 1007,0 hPa 0,0 mm 0,0 km/h (0 Bft) N-NW 337 0 min -8,4 C 0,0 km/h (0 Bft)
11.02.2016 22:24 -4,5 C -5,1 C 74 % 1007,0 hPa 0,0 mm 0,0 km/h (0 Bft) N-NW 337 0 min -8,4 C 0,0 km/h (0 Bft)
11.02.2016 22:25 -4,8 C -5,3 C 73 % 1007,0 hPa 0,0 mm 0,0 km/h (0 Bft) N-NO 22 0 min -8,9 C 0,0 km/h (0 Bft)
11.02.2016 22:26 -4,8 C -5,3 C 73 % 1007,0 hPa 0,0 mm 0,0 km/h (0 Bft) N-NO 22 0 min -8,9 C 0,0 km/h (0 Bft)
11.02.2016 22:27 -4,9 C -5,4 C 73 % 1007,0 hPa 0,0 mm 0,0 km/h (0 Bft) N-NO 22 0 min -9,0 C 0,0 km/h (0 Bft)
11.02.2016 22:28 -4,9 C -5,4 C 73 % 1007,0 hPa 0,0 mm 0,0 km/h (0 Bft) N-NO 22 0 min -9,0 C 0,0 km/h (0 Bft)
11.02.2016 22:29 -4,9 C -5,4 C 73 % 1007,0 hPa 0,0 mm 0,0 km/h (0 Bft) N-NO 22 0 min -9,0 C 0,0 km/h (0 Bft)
11.02.2016 22:30 -4,9 C -5,4 C 73 % 1007,0 hPa 0,0 mm 0,0 km/h (0 Bft) N-NO 22 0 min -9,0 C 0,0 km/h (0 Bft)
11.02.2016 22:31 -4,8 C -5,3 C 73 % 1007,0 hPa 0,0 mm 0,0 km/h (0 Bft) N-NO 22 0 min -8,9 C 0,0 km/h (0 Bft)
11.02.2016 22:32 -4,8 C -5,3 C 73 % 1007,0 hPa 0,0 mm 0,0 km/h (0 Bft) N-NO 22 0 min -8,9 C 0,0 km/h (0 Bft)
11.02.2016 22:33 -4,9 C -5,4 C 73 % 1007,0 hPa 0,0 mm 0,0 km/h (0 Bft) N-NO 22 0 min -9,0 C 0,0 km/h (0 Bft)
11.02.2016 22:34 -4,9 C -5,4 C 73 % 1007,0 hPa 0,0 mm 0,0 km/h (0 Bft) N-NO 22 0 min -9,0 C 0,0 km/h (0 Bft)
11.02.2016 22:35 -4,9 C -5,4 C 73 % 1007,0 hPa 0,0 mm 0,0 km/h (0 Bft) O-NO 67 0 min -9,0 C 0,0 km/h (0 Bft)
11.02.2016 22:36 -4,9 C -5,4 C 73 % 1007,0 hPa 0,0 mm 0,0 km/h (0 Bft) O-NO 67 0 min -9,0 C 0,0 km/h (0 Bft)
11.02.2016 22:37 -4,7 C -5,2 C 74 % 1007,0 hPa 0,0 mm 0,0 km/h (0 Bft) O-NO 67 0 min -8,6 C 0,0 km/h (0 Bft)
11.02.2016 22:38 -4,7 C -5,2 C 74 % 1007,0 hPa 0,0 mm 0,0 km/h (0 Bft) O-NO 67 0 min -8,6 C 0,0 km/h (0 Bft)
11.02.2016 22:39 -4,8 C -5,3 C 74 % 1007,0 hPa 0,0 mm 0,0 km/h (0 Bft) O-NO 67 0 min -8,7 C 0,0 km/h (0 Bft)
11.02.2016 22:40 -4,8 C -5,3 C 74 % 1007,0 hPa 0,0 mm 0,0 km/h (0 Bft) O-NO 67 0 min -8,7 C 0,0 km/h (0 Bft)
11.02.2016 22:41 -4,8 C -5,3 C 74 % 1007,0 hPa 0,0 mm 0,0 km/h (0 Bft) O-NO 67 0 min -8,7 C 0,0 km/h (0 Bft)
11.02.2016 22:42 -4,8 C -5,3 C 74 % 1007,0 hPa 0,0 mm 0,0 km/h (0 Bft) O-NO 67 0 min -8,7 C 0,0 km/h (0 Bft)
11.02.2016 22:43 -4,9 C -5,3 C 74 % 1007,0 hPa 0,0 mm 0,0 km/h (0 Bft) O-NO 67 0 min -8,8 C 0,0 km/h (0 Bft)
11.02.2016 22:44 -4,9 C -5,3 C 74 % 1007,0 hPa 0,0 mm 0,0 km/h (0 Bft) O-NO 67 0 min -8,8 C 0,0 km/h (0 Bft)
11.02.2016 22:45 -4,8 C -5,3 C 74 % 1007,0 hPa 0,0 mm 0,0 km/h (0 Bft) O-NO 67 0 min -8,7 C 0,0 km/h (0 Bft)
11.02.2016 22:46 -4,8 C -5,3 C 74 % 1007,0 hPa 0,0 mm 0,0 km/h (0 Bft) O-NO 67 0 min -8,7 C 0,0 km/h (0 Bft)
11.02.2016 22:47 -4,7 C -5,2 C 74 % 1007,0 hPa 0,0 mm 0,0 km/h (0 Bft) O-NO 67 0 min -8,6 C 0,0 km/h (0 Bft)
11.02.2016 22:48 -4,7 C -5,2 C 74 % 1007,0 hPa 0,0 mm 0,0 km/h (0 Bft) O-NO 67 0 min -8,6 C 0,0 km/h (0 Bft)
11.02.2016 22:49 -4,6 C -5,1 C 74 % 1007,0 hPa 0,0 mm 0,0 km/h (0 Bft) O-NO 67 0 min -8,5 C 0,0 km/h (0 Bft)
11.02.2016 22:50 -4,6 C -5,1 C 74 % 1007,0 hPa 0,0 mm 0,0 km/h (0 Bft) O-NO 67 0 min -8,5 C 0,0 km/h (0 Bft)
11.02.2016 22:51 -4,7 C -5,2 C 74 % 1007,0 hPa 0,0 mm 0,0 km/h (0 Bft) O-NO 67 0 min -8,6 C 0,0 km/h (0 Bft)
11.02.2016 22:52 -4,7 C -5,2 C 74 % 1007,0 hPa 0,0 mm 0,0 km/h (0 Bft) O-NO 67 0 min -8,6 C 0,0 km/h (0 Bft)
11.02.2016 22:53 -4,3 C -4,8 C 74 % 1007,0 hPa 0,0 mm 0,0 km/h (0 Bft) NO 45 0 min -8,2 C 0,0 km/h (0 Bft)
11.02.2016 22:54 -4,3 C -4,8 C 74 % 1007,0 hPa 0,0 mm 0,0 km/h (0 Bft) NO 45 0 min -8,2 C 0,0 km/h (0 Bft)
11.02.2016 22:55 -4,3 C -4,8 C 75 % 1007,0 hPa 0,0 mm 0,0 km/h (0 Bft) O-NO 67 0 min -8,0 C 0,0 km/h (0 Bft)
11.02.2016 22:56 -4,3 C -4,8 C 75 % 1007,0 hPa 0,0 mm 0,0 km/h (0 Bft) O-NO 67 0 min -8,0 C 0,0 km/h (0 Bft)
11.02.2016 22:57 -4,3 C -4,7 C 69 % 1007,0 hPa 0,0 mm 0,0 km/h (0 Bft) O-SO 112 0 min -9,1 C 0,0 km/h (0 Bft)
11.02.2016 22:58 -4,3 C -4,7 C 69 % 1007,0 hPa 0,0 mm 0,0 km/h (0 Bft) O-SO 112 0 min -9,1 C 0,0 km/h (0 Bft)
11.02.2016 22:59 -4,3 C -4,7 C 69 % 1007,0 hPa 0,0 mm 0,0 km/h (0 Bft) S 180 0 min -9,1 C 0,0 km/h (0 Bft)
11.02.2016 23:00 -4,3 C -4,7 C 69 % 1007,0 hPa 0,0 mm 0,0 km/h (0 Bft) S 180 0 min -9,1 C 0,0 km/h (0 Bft)
11.02.2016 23:01 -4,1 C -4,6 C 75 % 1007,0 hPa 0,0 mm 0,0 km/h (0 Bft) SO 135 0 min -7,9 C 0,0 km/h (0 Bft)
11.02.2016 23:02 -4,1 C -4,6 C 75 % 1007,0 hPa 0,0 mm 0,0 km/h (0 Bft) SO 135 0 min -7,9 C 0,0 km/h (0 Bft)
11.02.2016 23:03 -4,0 C -4,4 C 70 % 1006,9 hPa 0,0 mm 0,0 km/h (0 Bft) SO 135 0 min -8,6 C 0,0 km/h (0 Bft)
11.02.2016 23:04 -4,0 C -4,4 C 70 % 1006,9 hPa 0,0 mm 0,0 km/h (0 Bft) SO 135 0 min -8,6 C 0,0 km/h (0 Bft)
11.02.2016 23:05 -3,7 C -4,2 C 76 % 1006,9 hPa 0,0 mm 0,0 km/h (0 Bft) S 180 0 min -7,3 C 0,0 km/h (0 Bft)
11.02.2016 23:06 -3,7 C -4,2 C 76 % 1006,9 hPa 0,0 mm 0,0 km/h (0 Bft) S 180 0 min -7,3 C 0,0 km/h (0 Bft)
11.02.2016 23:07 -3,6 C -4,1 C 76 % 1006,9 hPa 0,0 mm 0,0 km/h (0 Bft) S-SO 157 0 min -7,2 C 0,0 km/h (0 Bft)
11.02.2016 23:08 -3,6 C -4,1 C 76 % 1006,9 hPa 0,0 mm 0,0 km/h (0 Bft) S-SO 157 0 min -7,2 C 0,0 km/h (0 Bft)
11.02.2016 23:09 -3,6 C -4,0 C 70 % 1006,9 hPa 0,0 mm 0,0 km/h (0 Bft) S-SO 157 0 min -8,3 C 0,0 km/h (0 Bft)
11.02.2016 23:10 -3,6 C -4,0 C 70 % 1006,9 hPa 0,0 mm 0,0 km/h (0 Bft) S-SO 157 0 min -8,3 C 0,0 km/h (0 Bft)
11.02.2016 23:11 -3,5 C -3,9 C 70 % 1006,9 hPa 0,0 mm 0,0 km/h (0 Bft) SO 135 0 min -8,2 C 0,0 km/h (0 Bft)
11.02.2016 23:12 -3,5 C -3,9 C 70 % 1006,9 hPa 0,0 mm 0,0 km/h (0 Bft) SO 135 0 min -8,2 C 0,0 km/h (0 Bft)
11.02.2016 23:13 -3,5 C -3,9 C 70 % 1006,9 hPa 0,0 mm 0,0 km/h (0 Bft) SO 135 0 min -8,2 C 0,0 km/h (0 Bft)
11.02.2016 23:14 -3,5 C -3,9 C 70 % 1006,9 hPa 0,0 mm 0,0 km/h (0 Bft) SO 135 0 min -8,2 C 0,0 km/h (0 Bft)
11.02.2016 23:15 -3,4 C -3,9 C 70 % 1006,9 hPa 0,0 mm 0,0 km/h (0 Bft) SO 135 0 min -8,1 C 0,0 km/h (0 Bft)
11.02.2016 23:16 -3,4 C -3,9 C 70 % 1006,9 hPa 0,0 mm 0,0 km/h (0 Bft) SO 135 0 min -8,1 C 0,0 km/h (0 Bft)
11.02.2016 23:17 -3,4 C -3,8 C 70 % 1006,9 hPa 0,0 mm 0,0 km/h (0 Bft) S 180 0 min -8,1 C 0,0 km/h (0 Bft)
11.02.2016 23:18 -3,4 C -3,8 C 70 % 1006,9 hPa 0,0 mm 0,0 km/h (0 Bft) S 180 0 min -8,1 C 0,0 km/h (0 Bft)
11.02.2016 23:19 -3,2 C -3,7 C 70 % 1006,9 hPa 0,0 mm 0,0 km/h (0 Bft) SO 135 0 min -7,9 C 0,0 km/h (0 Bft)
11.02.2016 23:20 -3,2 C -3,7 C 70 % 1006,9 hPa 0,0 mm 0,0 km/h (0 Bft) SO 135 0 min -7,9 C 0,0 km/h (0 Bft)
11.02.2016 23:21 -3,2 C -3,7 C 70 % 1006,9 hPa 0,0 mm 0,0 km/h (0 Bft) S 180 0 min -7,9 C 0,0 km/h (0 Bft)
11.02.2016 23:22 -3,2 C -3,7 C 70 % 1006,9 hPa 0,0 mm 0,0 km/h (0 Bft) S 180 0 min -7,9 C 0,0 km/h (0 Bft)
11.02.2016 23:23 -3,1 C -3,7 C 76 % 1007,0 hPa 0,0 mm 0,0 km/h (0 Bft) S 180 0 min -6,7 C 0,0 km/h (0 Bft)
11.02.2016 23:24 -3,1 C -3,7 C 76 % 1007,0 hPa 0,0 mm 0,0 km/h (0 Bft) S 180 0 min -6,7 C 0,0 km/h (0 Bft)
11.02.2016 23:25 -3,0 C -3,6 C 75 % 1007,0 hPa 0,0 mm 0,0 km/h (0 Bft) S-SO 157 0 min -6,8 C 0,0 km/h (0 Bft)
11.02.2016 23:26 -3,0 C -3,6 C 75 % 1007,0 hPa 0,0 mm 0,0 km/h (0 Bft) S-SO 157 0 min -6,8 C 0,0 km/h (0 Bft)
11.02.2016 23:27 -3,0 C -3,6 C 75 % 1007,0 hPa 0,0 mm 0,0 km/h (0 Bft) SO 135 0 min -6,8 C 0,0 km/h (0 Bft)
11.02.2016 23:28 -3,0 C -3,6 C 75 % 1007,0 hPa 0,0 mm 0,0 km/h (0 Bft) SO 135 0 min -6,8 C 0,0 km/h (0 Bft)
11.02.2016 23:29 -3,0 C -3,6 C 75 % 1007,0 hPa 0,0 mm 0,0 km/h (0 Bft) S 180 0 min -6,8 C 0,0 km/h (0 Bft)
11.02.2016 23:30 -3,0 C -3,6 C 75 % 1007,0 hPa 0,0 mm 0,0 km/h (0 Bft) S 180 0 min -6,8 C 0,0 km/h (0 Bft)
11.02.2016 23:31 -3,0 C -3,5 C 75 % 1007,0 hPa 0,0 mm 0,0 km/h (0 Bft) S 180 0 min -6,8 C 0,0 km/h (0 Bft)
11.02.2016 23:32 -3,0 C -3,5 C 75 % 1007,0 hPa 0,0 mm 0,0 km/h (0 Bft) S 180 0 min -6,8 C 0,0 km/h (0 Bft)
11.02.2016 23:33 -3,0 C -3,5 C 75 % 1007,0 hPa 0,0 mm 0,0 km/h (0 Bft) S-SO 157 0 min -6,8 C 0,0 km/h (0 Bft)
11.02.2016 23:34 -3,0 C -3,5 C 75 % 1007,0 hPa 0,0 mm 0,0 km/h (0 Bft) S-SO 157 0 min -6,8 C 0,0 km/h (0 Bft)
11.02.2016 23:35 -2,9 C -3,4 C 74 % 1007,0 hPa 0,0 mm 0,0 km/h (0 Bft) SO 135 0 min -6,9 C 0,0 km/h (0 Bft)
11.02.2016 23:36 -2,9 C -3,4 C 74 % 1007,0 hPa 0,0 mm 0,0 km/h (0 Bft) SO 135 0 min -6,9 C 0,0 km/h (0 Bft)
11.02.2016 23:37 -2,9 C -3,4 C 74 % 1007,0 hPa 0,0 mm 0,0 km/h (0 Bft) S 180 0 min -6,9 C 0,0 km/h (0 Bft)
11.02.2016 23:38 -2,9 C -3,4 C 74 % 1007,0 hPa 0,0 mm 0,0 km/h (0 Bft) S 180 0 min -6,9 C 0,0 km/h (0 Bft)
11.02.2016 23:39 -3,0 C -3,5 C 74 % 1007,0 hPa 0,0 mm 0,0 km/h (0 Bft) S-SW 202 0 min -7,0 C 0,0 km/h (0 Bft)
11.02.2016 23:40 -3,0 C -3,5 C 74 % 1007,0 hPa 0,0 mm 0,0 km/h (0 Bft) S-SW 202 0 min -7,0 C 0,0 km/h (0 Bft)
11.02.2016 23:41 -3,0 C -3,5 C 74 % 1007,0 hPa 0,0 mm 0,0 km/h (0 Bft) SW 225 0 min -7,0 C 0,0 km/h (0 Bft)
11.02.2016 23:42 -3,0 C -3,5 C 74 % 1007,0 hPa 0,0 mm 0,0 km/h (0 Bft) SW 225 0 min -7,0 C 0,0 km/h (0 Bft)
11.02.2016 23:43 -3,0 C -3,5 C 74 % 1007,0 hPa 0,0 mm 0,3 km/h (0 Bft) S 180 0 min -7,0 C 0,0 km/h (0 Bft)
11.02.2016 23:44 -3,0 C -3,5 C 74 % 1007,0 hPa 0,0 mm 0,3 km/h (0 Bft) S 180 0 min -7,0 C 0,0 km/h (0 Bft)
11.02.2016 23:45 -3,0 C -3,5 C 74 % 1007,0 hPa 0,0 mm 0,6 km/h (0 Bft) S 180 0 min -7,0 C 4,8 km/h (1 Bft)
11.02.2016 23:46 -3,0 C -3,5 C 74 % 1007,0 hPa 0,0 mm 0,6 km/h (0 Bft) S 180 0 min -7,0 C 4,8 km/h (1 Bft)
11.02.2016 23:47 -3,0 C -3,5 C 73 % 1007,0 hPa 0,0 mm 0,9 km/h (0 Bft) S 180 0 min -7,1 C 4,5 km/h (1 Bft)
11.02.2016 23:48 -3,0 C -3,5 C 73 % 1007,0 hPa 0,0 mm 0,9 km/h (0 Bft) S 180 0 min -7,1 C 4,5 km/h (1 Bft)
11.02.2016 23:49 -3,0 C -3,5 C 73 % 1007,0 hPa 0,0 mm 0,9 km/h (0 Bft) S 180 0 min -7,1 C 0,0 km/h (0 Bft)
11.02.2016 23:50 -3,0 C -3,5 C 73 % 1007,0 hPa 0,0 mm 0,9 km/h (0 Bft) S 180 0 min -7,1 C 0,0 km/h (0 Bft)
11.02.2016 23:51 -3,1 C -3,5 C 73 % 1007,0 hPa 0,0 mm 0,9 km/h (0 Bft) S-SO 157 0 min -7,2 C 0,0 km/h (0 Bft)
11.02.2016 23:52 -3,1 C -3,5 C 73 % 1007,0 hPa 0,0 mm 0,9 km/h (0 Bft) S-SO 157 0 min -7,2 C 0,0 km/h (0 Bft)
11.02.2016 23:53 -3,1 C -3,6 C 73 % 1007,0 hPa 0,0 mm 0,9 km/h (0 Bft) S-SO 157 0 min -7,2 C 0,0 km/h (0 Bft)
11.02.2016 23:54 -3,1 C -3,6 C 73 % 1007,0 hPa 0,0 mm 0,9 km/h (0 Bft) S-SO 157 0 min -7,2 C 0,0 km/h (0 Bft)
11.02.2016 23:55 -3,1 C -3,6 C 73 % 1007,0 hPa 0,0 mm 0,6 km/h (0 Bft) S-SO 157 0 min -7,2 C 0,0 km/h (0 Bft)
11.02.2016 23:56 -3,1 C -3,6 C 73 % 1007,0 hPa 0,0 mm 0,6 km/h (0 Bft) S-SO 157 0 min -7,2 C 0,0 km/h (0 Bft)
11.02.2016 23:57 -3,1 C -3,6 C 73 % 1007,0 hPa 0,0 mm 0,3 km/h (0 Bft) S-SO 157 0 min -7,2 C 0,0 km/h (0 Bft)
11.02.2016 23:58 -3,1 C -3,6 C 73 % 1007,0 hPa 0,0 mm 0,3 km/h (0 Bft) S-SO 157 0 min -7,2 C 0,0 km/h (0 Bft)
11.02.2016 23:59 -3,1 C -3,6 C 73 % 1007,0 hPa 0,0 mm 0,0 km/h (0 Bft) S-SO 157 0 min -7,2 C 0,0 km/h (0 Bft)
_ Min-Zeit 21:39 21:39 15:48 00:40 - 23:59 - - - 19:50 23:59
Minimum _ -5,2 C -5,8 C 44 % 1003,9 hPa - 0,0 km/h (0 Bft) - - - -9,9 C 0,0 km/h (0 Bft)
_ Max-Zeit 15:12 15:12 23:24 12:40 23:59 01:40 - - 14:00 14:48 01:35
Maximum _ 5,8 C 9,6 C 76 % 1008,7 hPa 0,0 mm 19,1 km/h
W (3 Bft)
- - 5 min -5,3 C 44,1 km/h
W-NW (6 Bft)
Durchschnitt _ -0,0 C 0,2 C 57 % 1006,4 hPa #0,0 mm 7,9 km/h (2 Bft) NW - #4:55 h -7,7 C 10,1 km/h (2 Bft)